GFSNE_700_spd_000.txt.gz
Wind_Speed
50 51 52 52 53 52 53 54 56 62 63 61 60 58 54 50 48 49 49 49 48 46 43 37 41 44 42 41 42 43 43 45 42 42 40 39 41 42
50 51 51 53 55 55 56 56 55 57 65 62 61 58 54 53 50 49 51 56 52 47 49 46 43 45 45 44 44 44 43 46 42 41 43 41 41 42
46 47 47 48 50 51 53 55 57 56 60 64 62 58 57 56 55 52 52 52 51 48 50 52 48 47 50 47 47 48 48 48 44 49 41 44 45 45
48 49 49 50 49 47 47 50 53 53 55 60 60 61 59 57 55 53 51 51 50 51 49 51 50 44 50 53 50 52 52 47 45 41 43 41 48 41
46 48 49 51 51 51 50 50 50 49 49 52 57 57 59 57 59 58 55 55 54 52 42 47 52 47 53 53 46 52 63 50 48 51 40 49 43 41
45 48 50 52 53 54 54 53 52 50 50 46 48 52 54 54 56 58 57 54 52 56 53 49 59 55 51 57 56 51 58 58 52 52 46 47 40 40
46 49 49 50 52 52 54 55 54 54 53 50 51 49 43 48 52 54 53 52 51 51 52 51 52 50 60 58 47 51 60 56 52 50 44 40 38 36
51 51 49 48 49 50 51 50 49 52 53 52 52 53 54 56 55 53 53 54 55 50 48 45 42 48 51 57 57 46 51 55 50 50 41 36 35 36
52 52 50 47 47 48 49 49 48 47 47 50 52 51 53 54 52 49 52 52 51 48 51 46 46 39 44 49 52 53 51 46 43 38 31 31 34 36
52 49 51 52 46 45 48 49 46 45 43 45 46 48 49 50 49 48 48 53 51 49 50 45 35 41 42 44 45 44 46 38 36 29 26 30 32 32
48 49 51 51 46 44 47 48 47 42 41 41 42 43 44 44 43 45 44 48 46 48 48 43 40 42 42 41 37 37 35 31 26 25 26 29 29 28
45 44 46 46 44 42 42 46 46 41 40 39 38 40 40 40 40 41 42 44 49 47 38 44 39 31 40 38 34 33 28 25 22 24 25 26 25 24
46 47 45 41 40 38 38 38 40 37 37 38 40 41 40 40 37 37 44 41 47 39 35 33 32 32 31 31 29 27 26 20 21 22 23 23 23 22
44 45 43 38 35 34 34 33 35 35 36 36 35 38 38 36 32 35 39 38 38 36 35 37 33 25 32 30 27 24 19 18 19 22 22 22 21 21
40 41 40 35 33 32 30 30 30 33 34 33 32 35 34 35 37 35 33 32 31 29 24 20 17 21 26 23 20 17 17 18 20 19 19 19 20 22
39 39 38 33 31 28 27 27 29 31 33 33 33 33 31 31 31 30 25 18 11 8 9 13 14 20 21 18 15 15 18 18 17 18 17 18 20 21
40 38 37 32 31 26 23 25 27 29 31 31 30 27 27 25 21 17 11 1 2 5 6 12 16 16 13 12 16 16 17 15 14 15 16 16 18 20
38 37 35 32 30 26 25 27 27 30 33 30 27 24 25 21 17 11 9 4 6 8 12 12 12 8 12 13 12 12 12 14 15 16 16 14 17 22
36 35 34 32 28 25 25 27 29 32 33 31 27 25 22 18 13 11 15 11 12 11 8 7 9 8 8 8 9 11 14 15 14 14 17 17 17 23
33 32 32 29 26 25 25 27 29 34 32 29 25 23 20 13 12 18 16 14 10 6 6 6 4 4 5 8 12 12 11 13 14 16 20 21 21 24
30 28 28 26 25 24 25 27 29 35 31 27 21 16 7 15 19 19 16 11 11 6 5 4 1 5 7 8 9 13 15 15 16 17 18 17 20 22
28 27 26 24 24 24 25 26 30 32 28 21 11 6 15 19 19 19 18 14 10 7 3 1 3 3 5 8 10 13 17 16 8 6 7 10 11 13
26 26 24 22 23 24 24 25 31 29 24 12 6 14 17 19 22 18 15 12 8 4 3 2 4 5 7 7 7 4 5 9 9 5 7 10 11 9

GFSNE_700_spd_003.txt.gz
Wind_Speed
55 54 53 52 53 56 58 59 57 61 63 62 62 60 59 56 54 52 50 52 52 51 52 49 53 54 56 52 49 49 50 49 49 49 49 48 47 46
54 54 54 53 52 51 52 54 56 57 60 60 62 61 60 58 57 57 56 52 49 50 51 56 57 57 59 51 50 49 52 51 51 53 54 51 49 49
52 53 52 52 53 53 53 54 54 55 60 60 60 58 59 60 60 58 55 54 52 51 50 51 55 52 46 54 52 53 52 52 52 56 53 50 51 51
49 49 50 51 52 53 54 55 56 56 57 60 58 56 57 57 55 56 53 52 52 51 50 50 50 53 53 53 57 56 56 58 57 57 52 56 56 59
49 49 50 51 51 53 54 55 57 60 62 62 62 63 59 56 55 49 48 48 50 50 47 47 49 52 54 55 54 55 55 61 60 59 57 61 59 55
49 49 50 51 53 54 56 57 60 62 63 64 62 63 61 59 55 53 51 39 39 43 44 46 44 45 48 49 46 53 53 61 57 59 58 54 55 54
50 51 51 52 53 54 58 58 60 61 62 62 61 59 59 58 55 53 51 52 59 55 49 50 43 40 43 45 44 48 56 60 60 49 58 60 56 56
53 53 53 53 53 54 55 55 56 56 58 59 58 57 56 52 52 52 52 52 54 54 51 53 41 43 37 41 45 47 51 50 50 55 58 50 54 55
54 54 54 54 54 55 54 54 54 53 53 54 54 53 52 47 48 50 48 50 53 51 52 55 49 42 40 42 40 45 42 40 40 45 52 52 51 48
52 50 51 51 50 51 52 53 52 45 45 47 50 49 49 46 45 46 47 48 50 51 48 50 49 45 43 42 36 34 34 34 37 46 48 45 41 40
48 46 45 46 46 45 49 50 46 41 40 43 44 45 43 40 41 42 42 43 49 50 49 48 45 44 36 44 37 37 42 40 39 41 40 40 34 34
46 47 45 44 44 44 45 43 40 38 38 38 38 40 38 38 36 36 37 42 46 51 43 45 48 43 46 40 38 39 40 37 34 32 31 33 31 24
45 48 46 45 43 41 39 37 37 37 35 39 40 39 37 36 36 36 34 37 38 40 44 46 47 41 46 40 36 38 35 35 32 32 33 29 23 22
46 46 45 44 43 40 37 33 32 32 33 38 41 38 36 34 34 34 35 35 36 41 41 44 47 42 43 36 35 28 33 32 31 30 26 18 20 23
43 44 43 43 41 39 35 31 29 29 32 36 36 38 34 33 33 34 34 36 38 39 42 38 34 29 27 27 19 21 30 30 28 22 17 18 20 20
41 44 42 41 38 37 32 28 27 27 31 35 40 36 36 35 31 30 32 32 25 20 17 17 19 19 17 16 16 25 28 24 15 11 17 18 17 17
45 45 43 40 38 36 29 26 25 25 30 33 37 38 38 33 28 27 27 18 7 0 4 5 8 13 19 21 22 19 11 9 13 15 15 15 18 20
45 44 41 39 37 35 31 28 26 26 31 33 39 38 35 28 24 21 18 10 6 4 5 8 9 14 17 13 8 8 10 12 13 13 15 18 22 24
41 40 37 36 35 32 31 30 29 28 32 38 41 37 31 24 20 15 12 10 7 8 8 12 10 8 7 7 8 10 11 12 14 16 18 18 20 21
38 37 34 33 32 31 30 29 29 29 34 40 38 31 24 16 10 7 10 10 10 11 12 10 7 6 7 8 9 10 11 12 13 14 15 16 18 21
36 34 31 30 30 29 29 28 28 30 39 38 28 19 10 1 9 14 15 14 15 12 9 8 7 5 5 6 7 8 9 10 11 13 16 16 18 20
34 32 29 27 28 27 26 26 27 34 36 27 13 8 8 13 17 19 19 14 11 10 7 3 2 3 4 6 7 8 8 9 9 9 11 13 17 17
31 28 26 25 25 25 26 26 29 35 27 10 8 9 16 21 18 15 13 11 8 4 2 1 2 3 4 5 6 4 4 6 9 10 12 13 11 9

GFSNE_700_spd_006.txt.gz
Wind_Speed
53 53 54 54 54 53 53 53 55 60 61 57 59 56 57 56 54 54 57 59 56 53 52 54 51 54 58 60 69 63 49 46 46 46 48 48 49 52
50 50 51 51 51 52 52 52 52 53 57 53 51 53 54 56 56 58 57 57 56 55 54 53 53 53 52 53 55 61 59 56 56 50 48 50 50 54
52 52 52 52 51 51 51 51 53 53 53 53 52 50 51 54 54 56 58 59 57 53 49 48 51 52 52 50 48 44 50 61 62 58 50 51 53 56
55 56 55 55 54 54 54 55 56 56 58 62 57 57 58 58 59 60 60 59 56 54 44 40 40 47 49 50 50 50 53 51 49 52 55 56 53 55
57 55 54 55 55 56 56 56 58 60 61 62 65 63 63 64 65 64 63 62 58 54 48 43 41 45 44 44 45 47 47 50 56 50 58 55 55 55
56 54 54 54 55 56 57 57 59 62 63 65 67 67 66 65 66 66 67 60 59 54 49 45 48 48 30 37 41 39 42 43 45 49 53 51 56 56
57 56 55 54 54 54 56 57 57 58 59 61 62 63 62 62 62 58 57 57 56 51 48 43 46 49 45 44 47 42 42 41 41 41 44 48 58 52
57 55 55 54 52 52 52 51 52 52 52 51 54 54 53 50 48 48 44 47 52 45 44 44 41 42 41 36 39 39 42 39 38 37 44 49 50 60
57 56 55 52 51 52 51 49 48 45 42 45 48 46 45 42 38 47 45 45 45 41 40 43 39 41 38 36 37 38 40 43 39 39 30 38 36 52
56 52 50 51 49 48 48 47 46 44 42 42 39 33 35 37 43 45 47 46 43 40 38 43 39 40 40 38 35 36 36 39 37 33 30 28 41 46
50 47 45 45 45 45 43 47 47 44 40 38 36 35 35 36 38 43 42 43 44 34 32 40 39 42 40 36 34 32 30 29 33 34 29 28 30 43
45 45 44 45 45 43 46 47 46 43 41 36 32 31 32 33 36 40 42 37 37 36 31 36 37 36 37 34 30 31 33 29 29 38 32 27 38 44
45 45 45 45 44 45 46 45 43 42 38 35 34 32 32 36 36 39 34 34 33 35 34 36 37 34 32 31 31 32 35 33 30 31 32 38 39 39
43 43 42 44 48 48 45 42 39 37 35 34 33 32 33 33 38 36 31 31 33 36 37 38 41 37 34 34 35 38 35 32 33 33 36 35 33 31
42 40 41 48 48 45 40 37 37 34 32 31 32 32 35 38 40 36 32 32 31 31 32 33 36 36 34 34 31 28 27 30 34 32 31 29 29 32
42 43 48 46 42 40 36 33 30 29 30 30 32 35 37 41 40 36 34 27 25 24 24 22 24 25 25 22 20 19 19 26 27 26 27 31 28 22
44 47 46 43 39 35 31 30 27 26 27 28 33 36 41 43 38 32 25 20 16 14 11 5 4 8 10 10 10 15 16 21 24 26 25 18 16 21
46 46 43 38 36 33 31 29 27 27 29 32 34 41 45 41 32 21 15 11 8 4 1 3 4 7 7 9 18 22 23 22 16 12 15 20 22 22
43 42 38 35 32 30 30 30 30 29 31 34 41 42 37 28 20 12 6 4 3 3 4 4 8 14 16 13 10 13 14 15 17 18 18 18 19 19
39 38 35 31 28 28 29 30 29 30 34 40 38 30 22 20 12 4 4 7 9 9 12 15 15 12 11 12 10 12 12 12 12 13 14 16 17 16
36 34 30 27 26 27 28 28 29 32 39 34 24 18 16 11 8 10 13 17 19 15 11 10 9 8 7 6 5 6 7 8 11 12 13 14 14 14
34 30 26 24 25 26 27 28 28 36 30 19 15 15 14 16 19 21 21 18 13 9 6 4 2 2 2 3 4 6 7 9 11 12 13 14 15 17
30 27 23 23 24 26 27 28 34 27 17 13 13 18 19 18 15 12 11 8 6 4 4 2 1 1 1 3 3 4 6 8 9 10 10 9 9 10

GFSNE_700_spd_009.txt.gz
Wind_Speed
49 50 51 52 53 54 54 53 51 52 60 53 55 52 53 52 51 50 49 47 49 50 50 50 50 52 54 58 55 59 59 68 43 67 61 66 63 48
54 55 56 56 57 56 55 54 53 52 56 57 56 57 56 54 52 51 50 49 47 47 49 49 52 50 49 50 55 58 60 62 54 58 54 58 51 49
59 61 60 58 57 55 55 55 55 54 55 61 59 59 60 59 58 57 55 55 54 54 55 54 51 48 52 50 49 53 56 55 54 55 53 63 58 55
62 60 59 58 57 55 55 56 58 59 59 60 62 62 62 62 63 62 61 60 61 60 60 59 57 51 46 47 50 48 51 54 51 54 51 55 60 64
61 59 58 56 55 54 54 55 57 58 59 58 62 61 62 62 64 63 63 63 64 65 65 64 62 54 45 46 47 48 49 49 48 46 46 46 52 48
57 54 53 53 54 55 55 55 56 57 57 54 57 58 57 57 55 57 60 57 61 62 64 65 61 51 46 43 48 51 45 46 38 42 43 43 42 50
56 54 54 53 52 50 49 49 49 48 48 48 50 48 49 48 46 45 47 46 46 40 40 43 46 38 41 42 47 49 49 49 41 36 40 41 44 43
57 56 54 51 47 43 41 40 41 36 39 41 45 48 47 43 40 34 36 38 44 36 41 40 34 32 34 38 38 42 40 39 44 45 40 41 39 43
54 52 48 44 41 41 42 41 34 39 44 46 46 45 47 43 38 34 43 41 42 41 43 45 28 31 25 27 29 33 37 38 40 42 41 41 43 40
46 42 41 40 39 41 40 39 41 44 42 42 43 45 44 39 37 40 42 44 42 39 43 43 31 27 27 25 26 29 33 34 38 39 43 42 38 33
41 40 39 40 41 39 37 43 48 43 40 40 39 38 34 30 30 32 33 38 40 41 39 33 28 25 24 20 21 24 28 27 31 37 38 36 38 33
42 41 41 41 40 37 46 50 50 44 42 39 36 30 27 25 25 27 33 37 41 41 31 29 26 28 25 21 20 20 23 22 23 26 27 32 28 28
45 44 43 42 37 47 47 45 43 41 40 38 34 31 27 25 27 29 33 37 37 32 27 28 27 25 26 24 19 16 14 18 10 20 17 22 18 21
45 45 45 41 45 44 41 38 37 36 37 35 33 30 28 28 28 32 36 36 32 31 26 24 27 26 27 24 21 18 16 18 12 12 15 17 24 25
46 47 47 46 43 38 35 33 32 32 32 32 31 30 31 32 34 38 40 34 30 24 23 22 24 24 25 23 21 19 20 16 15 16 17 22 27 31
48 49 46 42 36 33 30 27 27 29 31 32 32 33 35 37 39 40 35 27 21 17 16 16 17 19 18 18 18 20 20 19 20 24 26 26 23 22
50 46 42 37 33 29 26 26 25 27 27 29 33 37 39 40 34 29 23 17 13 9 7 5 5 6 7 12 16 18 19 18 20 27 25 22 23 23
44 41 38 35 31 28 26 26 26 26 29 33 37 38 33 29 26 17 12 9 7 3 2 6 9 8 5 9 17 18 18 17 21 21 23 23 25 26
39 37 35 31 28 26 27 28 28 29 34 36 32 27 26 21 17 13 9 6 5 8 11 11 10 14 15 19 26 24 19 21 21 24 27 26 20 18
35 34 31 29 26 26 27 28 29 34 33 27 23 21 19 17 15 11 10 11 15 16 18 21 22 19 22 19 19 21 21 18 16 15 14 16 19 21
32 30 28 25 25 26 27 28 34 31 25 21 19 17 15 15 13 14 17 19 20 20 18 14 13 13 13 13 13 14 15 15 17 17 15 16 16 17
30 28 25 24 25 26 27 32 30 21 18 17 15 14 16 17 17 17 17 15 11 9 8 7 7 7 8 8 9 10 11 12 13 13 13 14 15 16
28 26 23 24 25 26 30 30 19 17 16 14 16 17 13 12 11 10 9 8 7 7 7 6 6 5 5 5 5 6 8 9 10 11 12 13 13 14

GFSNE_700_spd_012.txt.gz
Wind_Speed
51 54 57 59 59 59 60 59 59 64 68 66 65 63 61 60 58 60 62 58 56 53 53 55 56 56 55 54 56 54 49 53 57 61 59 57 66 53
57 59 60 59 59 58 56 56 55 57 62 65 63 63 62 61 62 64 63 61 58 57 54 54 54 53 53 50 51 51 51 54 48 52 54 53 57 68
59 61 61 58 57 55 54 53 54 55 57 63 61 59 59 60 61 61 62 63 62 58 55 54 56 56 55 52 51 51 48 52 51 53 49 53 54 52
63 62 60 58 56 55 55 55 56 55 49 51 55 55 54 53 53 53 56 56 58 60 57 57 57 57 57 56 55 53 52 49 52 52 53 49 52 49
63 62 59 57 56 55 55 55 53 48 38 41 47 43 44 47 49 47 48 49 48 49 50 52 53 55 57 58 56 52 52 49 49 54 50 51 48 51
61 58 56 54 54 53 51 48 42 37 38 39 42 43 43 44 48 52 54 49 45 40 40 40 42 41 43 48 53 57 53 51 51 52 50 52 48 48
59 57 54 52 49 45 44 43 38 38 37 39 42 44 46 49 50 49 45 48 45 38 36 33 33 34 37 38 43 48 45 47 50 54 52 48 49 47
58 55 51 48 45 43 42 40 40 36 39 39 45 50 53 52 49 48 48 47 47 35 38 39 34 39 36 36 40 42 44 46 49 54 57 52 44 38
55 52 48 45 44 44 44 43 36 34 38 44 51 54 53 46 45 44 42 38 40 35 36 40 34 34 32 34 34 38 44 49 50 52 54 50 47 44
50 47 44 43 43 44 45 42 43 45 48 50 50 46 42 42 40 40 38 37 35 31 30 39 38 40 32 26 26 27 31 42 46 47 49 45 43 40
46 43 43 44 44 42 38 44 50 53 48 44 40 38 37 36 35 34 33 36 37 36 36 40 40 33 25 21 19 18 25 31 37 41 42 42 39 38
45 46 46 46 44 41 40 45 52 48 46 40 36 35 33 32 31 31 33 38 38 42 36 39 33 27 24 16 14 13 16 23 30 33 36 37 39 39
48 49 48 45 45 46 44 42 45 44 41 39 38 36 34 32 30 30 32 35 40 42 38 35 33 23 20 17 8 10 14 15 22 28 28 28 31 31
49 48 47 48 47 44 41 38 37 36 36 37 36 34 33 32 31 32 33 35 38 40 34 29 28 23 20 17 11 12 11 11 15 20 21 24 22 21
47 47 47 46 43 39 36 32 30 31 33 34 35 35 35 37 38 37 35 32 30 26 23 22 21 19 19 17 12 14 18 17 14 14 16 15 18 21
45 48 45 41 39 36 32 27 28 30 32 34 37 38 39 37 32 29 29 24 19 14 13 13 13 14 15 14 13 17 22 22 12 12 10 14 23 28
47 44 41 40 37 32 27 26 26 28 31 34 37 36 30 28 26 23 19 13 11 9 7 7 5 5 8 11 14 20 29 31 23 19 16 20 24 22
43 40 39 37 33 29 27 27 27 30 35 33 29 26 27 25 21 15 12 11 10 7 4 3 6 7 3 10 15 21 26 27 25 22 20 20 21 20
37 37 35 32 29 27 28 29 31 35 29 25 23 23 22 19 16 16 13 10 9 10 11 10 12 15 14 17 20 20 21 18 21 22 19 17 17 24
34 33 31 28 26 27 28 30 35 26 22 20 20 19 18 17 16 12 11 12 13 19 21 21 21 21 18 21 24 26 20 19 19 19 18 19 23 28
32 30 27 25 25 27 29 34 24 20 19 19 18 18 19 18 16 15 15 18 19 19 17 16 16 17 19 20 21 25 25 24 22 20 23 24 24 23
30 26 24 24 25 28 33 23 17 16 16 19 20 19 17 16 15 14 13 11 9 8 8 7 8 9 12 14 15 15 17 18 20 22 21 18 17 19
27 24 23 24 26 32 22 16 15 16 18 17 19 19 17 15 13 11 9 8 8 7 6 6 7 9 11 11 12 13 14 15 16 16 17 17 18 19

GFSNE_700_spd_015.txt.gz
Wind_Speed
48 51 54 56 59 60 61 61 60 68 73 69 67 61 60 59 56 53 52 53 54 58 60 62 61 59 57 58 59 62 65 67 66 62 57 64 52 55
51 54 56 59 61 61 60 59 57 56 63 65 64 60 58 57 52 49 50 50 51 50 50 52 57 58 57 56 57 56 58 60 61 60 54 50 51 47
54 57 60 61 61 60 59 57 57 54 53 61 56 54 53 51 52 48 47 45 48 47 47 47 48 51 53 55 54 53 53 54 55 56 53 52 47 45
57 59 60 60 60 59 57 55 54 52 48 48 51 48 48 48 49 49 50 49 51 50 49 49 46 43 46 49 49 51 52 52 54 52 50 46 46 45
58 59 60 59 59 56 54 53 51 47 43 43 48 47 45 44 47 50 53 53 53 50 47 45 45 44 40 40 41 43 47 51 53 52 49 47 45 43
58 59 59 57 55 53 52 50 46 45 45 43 46 43 44 45 48 54 60 55 52 48 49 46 44 42 37 37 34 35 38 47 51 52 51 49 47 45
58 58 56 55 52 50 46 45 45 45 46 44 45 46 47 49 56 57 57 54 51 48 46 41 39 36 36 35 36 37 36 41 46 50 51 48 47 47
57 56 54 51 49 47 46 46 42 41 41 46 46 52 55 59 55 52 50 50 53 41 41 38 32 31 31 34 34 35 37 41 46 45 47 49 49 47
54 53 52 49 48 48 49 47 43 37 40 48 52 56 61 53 48 48 47 46 46 41 39 38 32 32 32 33 34 33 36 37 42 44 44 44 46 47
52 51 49 50 49 48 46 47 47 47 50 50 52 57 51 43 41 43 44 45 43 40 37 43 38 39 40 38 34 30 28 31 35 39 45 48 48 47
50 49 49 50 49 45 44 50 55 52 46 43 44 42 38 37 37 39 40 42 44 42 36 43 42 43 42 30 22 19 23 26 32 37 42 46 49 47
50 50 49 48 46 43 48 52 51 46 45 41 37 36 36 35 35 36 39 42 45 49 40 44 43 42 40 25 13 13 18 20 25 34 33 36 41 41
52 52 51 49 44 48 45 44 42 40 39 37 38 37 37 36 36 37 38 41 46 49 43 42 42 37 31 26 9 7 12 8 6 12 20 24 28 32
51 51 51 48 49 46 42 39 35 34 35 37 38 39 40 40 40 38 35 35 35 38 35 30 31 28 25 20 10 4 10 8 8 4 9 17 20 25
48 48 47 47 44 41 36 32 31 33 35 37 40 42 41 38 34 32 30 28 26 24 23 20 20 20 19 16 7 5 11 13 11 3 11 14 17 16
48 47 44 41 38 35 31 28 29 32 35 40 41 37 33 31 28 27 27 24 21 16 15 14 14 15 14 12 7 11 17 16 10 6 4 12 19 17
46 43 41 38 35 31 28 29 30 32 38 35 31 30 28 26 25 21 20 20 19 18 15 12 9 10 10 7 9 15 20 19 14 5 1 9 17 21
41 40 38 35 32 30 30 31 31 36 29 27 26 26 26 24 22 19 18 18 17 15 14 11 9 5 2 6 11 18 21 18 15 11 11 16 22 24
37 36 34 31 29 29 31 33 35 25 24 23 23 22 21 20 19 19 18 17 13 12 15 16 16 12 10 10 13 16 21 18 15 12 10 10 15 19
34 33 31 28 28 29 32 33 23 21 20 20 21 20 20 19 16 15 14 16 18 19 19 18 17 15 14 17 20 22 19 15 12 12 13 13 14 21
33 30 27 26 28 31 31 22 20 20 21 22 24 25 23 21 20 19 19 18 17 16 17 18 20 21 16 17 22 23 22 16 13 11 12 14 18 25
32 27 25 26 30 29 22 19 18 20 22 24 23 22 20 19 18 16 15 13 11 10 9 8 9 14 18 16 16 18 19 18 14 14 14 14 18 25
28 25 25 28 28 22 19 18 18 21 22 23 22 21 19 16 14 13 12 12 11 9 7 6 7 8 10 12 14 15 16 17 18 19 20 20 22 25

GFSNE_700_spd_018.txt.gz
Wind_Speed
45 46 48 49 52 53 56 57 60 68 70 66 68 62 60 57 55 48 48 47 46 45 45 45 44 43 48 46 47 57 61 63 63 64 68 72 75 70
47 49 50 52 54 55 56 56 56 57 67 65 65 61 58 56 53 50 48 49 47 46 44 44 44 44 45 45 46 48 49 55 59 61 63 63 66 57
49 51 53 54 55 55 56 56 56 55 58 63 59 56 54 54 53 51 50 48 47 47 47 45 47 48 49 46 44 43 41 46 52 55 55 55 58 60
51 53 54 55 55 54 55 55 55 54 53 55 56 54 53 52 52 51 50 48 50 52 54 54 51 48 46 46 45 42 40 39 40 41 49 49 51 54
53 54 54 54 54 54 54 54 53 52 51 50 56 54 54 51 51 52 51 52 53 59 57 49 46 45 45 45 45 43 37 33 38 40 41 43 50 50
53 53 53 53 53 52 52 52 50 50 53 52 51 56 52 49 50 52 59 57 59 54 46 44 43 40 39 40 40 39 36 39 42 43 40 47 48 47
52 52 52 52 51 48 46 47 49 50 45 51 53 54 56 59 60 61 61 58 53 47 45 40 38 35 32 31 31 34 37 40 42 43 42 43 47 47
52 52 51 51 50 49 48 48 43 41 46 50 53 59 62 61 55 51 52 50 51 43 43 39 36 32 30 28 28 27 29 39 42 43 42 42 45 44
51 52 52 51 50 49 49 48 45 44 48 55 58 52 48 48 48 47 44 46 46 43 43 44 36 35 33 33 32 34 36 37 38 40 40 40 41 43
51 51 51 51 50 48 47 47 48 52 50 46 46 41 43 41 39 42 44 46 45 42 40 46 41 41 38 39 38 39 34 30 29 34 39 37 37 42
53 52 51 51 50 46 42 46 53 49 44 41 38 35 35 36 38 41 42 45 47 46 42 46 46 46 43 40 33 19 15 21 30 32 33 35 34 39
53 53 51 50 49 41 43 49 48 45 42 39 35 35 35 37 36 36 39 43 45 50 42 43 44 41 43 32 25 18 15 20 24 25 26 27 28 36
53 53 50 49 43 43 42 42 41 39 38 37 38 38 39 38 36 33 32 35 40 42 34 36 37 34 32 33 20 9 8 10 15 15 9 9 15 20
50 50 49 43 43 41 39 36 34 34 35 37 39 40 38 34 32 31 30 29 29 32 29 26 29 28 28 23 15 5 4 4 4 3 6 3 8 13
46 46 42 41 40 37 33 31 31 32 35 39 38 34 34 33 30 28 25 26 25 23 24 24 24 22 20 18 11 3 3 4 11 12 9 6 3 10
45 43 40 38 35 32 28 27 29 33 36 32 32 32 31 29 26 25 25 24 23 23 22 21 17 15 12 11 5 3 6 10 13 15 8 7 8 12
42 40 38 35 31 27 26 28 32 31 26 28 28 29 28 26 23 22 21 22 23 23 23 18 15 13 10 4 4 7 8 9 12 12 12 8 12 11
39 38 35 31 29 29 31 34 27 24 25 27 28 29 27 25 23 21 20 20 20 19 21 21 19 12 6 7 11 12 12 12 13 11 11 10 14 15
35 34 31 28 28 30 34 28 26 25 26 28 27 26 26 24 22 20 20 22 22 23 22 20 21 16 13 14 18 18 18 17 15 13 11 19 26 26
32 30 27 27 29 32 27 26 25 25 26 25 25 25 25 24 22 21 21 21 21 21 22 20 20 18 15 17 22 23 18 15 12 12 13 16 22 22
31 27 26 26 30 26 25 24 24 25 26 25 25 24 23 21 17 18 18 17 17 17 19 20 17 20 18 18 22 23 19 13 13 11 12 9 18 21
29 25 25 28 26 24 23 22 22 23 24 25 25 22 19 18 17 15 15 15 14 13 13 14 15 15 16 15 18 19 18 15 14 13 11 9 12 17
27 25 26 27 24 23 21 22 22 24 26 24 20 18 19 19 16 15 14 13 13 13 10 8 9 10 11 11 9 11 13 14 15 16 18 18 15 15

GFSNE_700_spd_021.txt.gz
Wind_Speed
46 48 48 48 49 50 51 54 58 66 67 60 60 57 60 60 58 54 52 50 48 47 46 47 45 41 42 44 44 44 45 45 47 48 50 51 60 73
47 48 49 49 51 51 52 53 53 57 66 59 59 60 60 61 57 54 51 50 48 46 45 45 40 38 42 41 43 45 46 45 46 48 46 44 49 58
47 49 50 52 53 53 53 53 53 55 60 60 59 60 60 60 57 53 52 50 49 46 44 37 42 45 49 52 51 50 46 43 44 46 45 45 45 45
49 52 53 53 52 52 52 53 54 54 55 59 60 61 59 59 57 56 55 51 50 50 54 53 50 53 50 47 46 44 46 47 47 45 43 45 42 36
52 53 53 53 54 53 53 54 54 55 55 56 58 56 57 58 58 60 60 60 60 57 55 50 48 42 40 41 44 46 46 44 47 45 45 34 37 40
52 53 53 53 53 53 54 53 53 53 53 51 49 52 55 58 61 63 58 51 49 45 43 39 37 36 35 36 37 38 39 40 40 41 41 40 42 44
52 51 52 52 52 52 51 51 51 50 48 45 50 55 58 60 56 52 49 48 42 41 41 35 36 33 31 31 32 33 34 34 34 34 36 39 42 44
53 53 53 53 52 50 49 48 44 42 42 45 52 58 59 53 46 45 46 46 47 40 41 37 36 33 32 30 30 32 34 37 36 36 37 42 45 45
55 56 56 54 52 51 49 48 44 40 40 49 56 51 50 42 43 45 44 45 47 45 44 46 39 40 35 35 34 36 36 37 39 41 43 45 47 48
56 57 56 53 51 50 49 44 41 47 51 47 46 43 40 39 41 44 47 49 47 45 41 46 39 40 36 35 32 35 34 36 39 42 42 42 45 46
55 54 51 49 49 47 39 42 49 47 41 39 35 34 35 38 41 44 42 43 42 38 32 40 38 40 37 33 25 21 21 23 28 34 38 42 41 41
53 50 47 46 45 38 40 46 45 41 38 35 33 34 36 36 31 30 33 36 38 39 31 38 37 35 36 25 19 18 18 19 25 28 29 32 32 36
48 47 46 42 38 41 39 39 37 36 35 36 38 37 30 30 30 30 29 31 33 35 34 34 35 32 31 27 14 12 15 13 14 17 20 20 22 29
46 45 42 39 40 38 36 33 31 32 35 37 32 29 30 32 31 30 27 25 26 30 30 28 30 28 24 18 12 8 11 10 14 12 10 5 14 23
43 42 38 38 37 34 30 29 30 33 33 28 30 30 31 31 28 27 26 26 24 22 24 26 26 20 17 14 12 8 7 8 14 18 13 5 9 17
42 39 37 36 33 28 26 27 30 27 27 28 30 30 29 27 25 26 26 26 24 20 21 23 22 16 10 8 10 9 11 17 20 21 7 10 11 16
39 37 36 32 27 26 27 26 23 24 25 28 29 28 26 26 25 24 23 23 23 26 24 20 18 11 8 8 13 15 18 19 20 20 14 12 16 16
35 36 33 28 27 29 27 23 23 25 26 27 27 27 28 27 26 24 23 22 24 25 25 22 18 14 13 17 21 22 21 20 16 18 15 10 9 13
34 32 28 26 27 27 24 25 26 26 27 27 28 29 28 25 23 23 22 22 21 24 23 21 19 16 18 22 23 26 21 19 14 12 22 30 29 20
31 28 25 25 26 24 24 25 26 26 26 28 30 27 24 23 20 19 22 23 21 21 20 20 19 17 18 21 25 26 19 18 19 17 22 25 31 29
28 24 24 24 23 23 24 25 25 26 29 28 23 22 23 22 18 18 18 19 19 16 17 16 20 20 17 18 23 21 18 16 17 18 19 23 25 28
25 23 23 21 22 23 23 24 25 26 26 20 18 20 21 21 21 20 19 16 16 16 13 14 15 19 15 14 17 18 17 14 13 13 14 15 17 24
24 23 20 20 22 24 24 25 25 26 23 18 18 17 18 19 21 20 17 17 16 13 12 10 11 10 11 11 11 13 13 12 10 9 13 12 13 18

GFSNE_700_spd_024.txt.gz
Wind_Speed
46 48 50 51 52 53 54 57 62 71 73 66 64 58 58 59 58 59 59 59 57 54 51 52 51 51 52 50 46 43 46 48 50 52 53 49 46 50
47 49 50 52 53 54 56 57 58 61 68 62 60 60 60 61 60 60 57 55 54 52 48 48 48 45 39 39 41 43 50 49 50 49 49 49 52 53
49 50 52 54 55 55 56 56 57 58 62 61 60 59 61 62 62 61 58 56 54 52 54 50 49 48 47 50 51 52 52 51 50 48 45 44 43 45
51 52 53 54 54 55 56 57 58 58 59 62 61 61 61 61 62 60 56 56 60 57 51 47 43 42 43 44 46 48 50 48 42 41 41 47 48 51
52 53 54 55 56 57 58 58 58 57 56 55 59 58 58 55 56 54 56 57 55 48 43 40 37 37 37 37 38 38 39 46 48 51 51 49 48 45
52 53 54 56 58 59 59 57 56 54 53 52 52 53 50 52 56 62 58 51 46 42 38 35 38 36 34 35 37 39 42 44 44 43 42 42 43 45
52 54 56 58 57 57 55 54 52 50 48 47 46 48 50 57 60 54 50 46 43 42 42 41 40 36 34 34 35 37 39 40 41 40 40 36 36 37
56 58 59 59 58 56 53 50 47 41 41 42 46 53 57 54 48 43 45 47 51 43 45 44 41 37 36 35 35 36 37 40 42 43 43 44 42 41
58 60 59 57 54 52 51 49 43 41 40 47 54 51 48 41 43 45 46 49 50 44 42 42 37 39 35 34 31 31 35 38 41 45 48 48 47 44
58 58 55 52 49 49 47 43 42 45 45 43 43 40 38 39 42 44 45 45 45 40 39 42 35 38 34 32 25 29 33 32 34 36 38 44 48 48
57 53 49 48 46 42 38 46 45 40 39 36 33 34 37 37 35 37 38 40 41 36 29 38 36 39 36 25 18 20 26 29 30 34 35 36 41 42
54 49 47 44 41 38 42 42 41 38 35 35 35 32 28 28 28 30 34 38 39 38 29 38 38 39 40 22 16 17 22 22 26 29 30 31 31 38
49 47 44 39 39 39 38 36 35 37 37 38 32 29 28 29 29 30 31 33 35 36 32 34 38 36 35 26 13 15 18 15 18 21 23 26 30 30
47 45 40 38 38 36 33 32 34 36 35 30 29 29 30 29 29 29 29 28 28 31 31 31 36 34 30 20 15 10 14 16 22 19 18 17 16 19
43 39 36 37 36 31 30 32 33 29 28 28 29 29 29 29 29 29 27 27 26 25 26 28 30 26 19 15 14 15 17 16 24 29 26 19 10 3
41 36 36 35 31 28 28 27 25 26 28 29 29 29 30 29 28 29 29 28 26 23 23 24 23 16 11 12 16 18 20 26 26 28 23 8 5 4
37 35 34 30 26 26 23 22 23 25 26 28 30 32 30 28 25 25 26 26 25 27 23 19 15 12 13 14 17 22 24 25 24 23 18 12 6 7
34 35 31 27 27 26 24 22 23 25 27 30 31 30 28 27 25 22 24 25 24 23 23 19 13 13 15 18 23 28 23 18 22 22 13 11 12 10
33 31 27 26 26 23 23 24 26 27 30 31 27 25 28 26 24 21 21 23 21 20 20 17 14 15 17 20 25 26 24 22 16 24 25 18 22 19
30 27 25 25 23 22 22 24 26 28 29 26 21 23 25 25 23 21 21 22 20 17 16 15 14 16 18 19 21 23 22 25 26 24 27 27 21 18
27 24 24 23 22 21 22 24 27 27 28 22 20 21 23 22 22 22 22 21 17 14 12 14 13 16 17 13 14 17 19 21 24 25 26 28 30 27
25 23 22 21 21 22 23 25 26 26 24 19 18 20 21 22 22 21 20 17 16 13 10 9 12 12 9 9 10 11 11 13 16 19 24 31 33 36
23 21 20 20 21 23 24 25 26 25 21 19 20 20 20 20 19 20 18 15 14 12 9 6 6 8 9 8 9 8 7 9 13 12 19 24 28 30

GFSNE_700_spd_027.txt.gz
Wind_Speed
43 45 46 49 51 53 55 57 61 71 75 73 71 67 67 67 65 65 64 63 62 61 60 59 59 59 60 61 62 61 61 59 46 49 46 48 53 53
45 47 48 51 53 54 55 56 58 62 72 70 69 69 68 69 66 64 62 60 58 55 53 51 52 52 54 56 56 56 56 46 48 49 50 54 53 57
47 49 51 54 55 56 56 58 61 64 69 70 69 67 67 67 65 62 59 57 53 50 52 52 50 49 46 43 41 41 44 52 51 53 55 57 59 58
50 52 53 55 56 57 59 62 64 64 64 68 68 66 62 58 58 57 55 51 52 59 56 49 45 39 39 41 41 42 44 44 47 51 50 50 46 46
52 54 55 57 58 60 63 64 64 65 62 60 62 58 55 53 53 52 53 58 62 57 47 43 39 39 39 40 39 40 42 43 42 41 42 45 46 47
53 55 56 58 61 63 64 63 61 59 56 55 55 53 49 52 55 59 59 54 50 44 43 39 41 42 41 41 41 41 43 45 46 46 46 48 49 50
55 56 58 60 61 60 59 57 55 53 52 49 49 50 54 57 55 50 50 48 46 45 46 41 39 38 35 35 37 39 43 44 44 44 44 44 44 44
56 58 60 60 59 56 53 51 47 44 44 44 51 53 52 48 44 44 48 50 49 40 45 35 36 36 34 33 31 33 37 39 42 45 46 47 47 46
57 59 59 56 53 52 50 47 44 42 44 47 48 43 42 41 44 45 42 44 45 41 44 42 36 35 31 31 29 30 35 38 42 43 45 48 50 50
57 57 55 52 50 48 46 44 43 41 39 38 37 38 40 39 37 40 44 45 43 38 39 44 37 34 33 29 27 28 32 37 42 42 42 42 45 47
56 53 50 50 47 44 43 44 42 36 34 33 33 32 30 32 36 40 41 43 42 37 31 41 38 41 37 28 20 18 27 34 36 36 35 34 35 36
53 49 48 46 42 40 41 41 38 36 36 33 27 27 30 31 30 31 35 40 42 41 34 42 42 44 42 27 16 16 20 22 26 28 30 30 31 34
49 47 45 42 38 38 37 35 35 37 34 30 31 30 29 29 30 31 33 36 39 40 36 38 41 39 36 24 13 16 19 21 24 26 27 30 34 36
46 44 42 39 38 36 33 32 34 31 31 31 31 30 32 32 31 30 29 31 32 34 34 34 37 33 26 20 18 17 20 22 25 25 26 29 28 29
43 40 38 37 36 31 30 32 31 30 30 30 31 32 33 32 30 28 24 28 28 27 28 29 28 22 20 22 25 25 27 27 30 29 29 31 27 13
42 38 37 36 32 30 28 26 27 28 30 31 33 32 28 28 28 27 25 28 26 22 22 24 20 17 17 21 26 27 28 35 37 33 29 23 16 13
40 37 35 31 28 26 23 23 24 26 28 30 31 26 26 28 26 26 24 25 26 26 22 15 15 17 19 23 27 30 31 28 29 27 24 16 15 14
36 35 33 29 28 24 23 21 23 27 29 31 25 24 26 27 27 25 24 23 23 22 19 16 14 14 16 22 28 33 34 33 32 27 16 12 13 11
34 33 29 27 24 22 22 24 26 27 29 30 24 22 25 25 26 25 23 21 19 17 17 14 14 14 18 23 23 26 31 36 34 33 23 15 13 11
31 28 26 23 22 22 22 24 25 26 27 25 21 21 23 25 26 24 22 21 18 14 13 10 11 13 19 21 22 25 30 31 33 32 27 19 20 16
27 23 23 21 21 21 22 24 26 27 27 22 19 20 24 25 24 22 19 17 16 13 9 6 8 11 14 14 15 20 24 27 30 33 28 23 20 18
24 21 20 21 21 22 23 24 23 21 21 20 20 22 23 22 22 20 18 15 15 12 8 6 7 8 9 13 16 18 20 24 24 29 34 34 28 26
21 20 20 21 22 24 24 23 20 20 21 22 22 22 21 19 18 18 16 15 13 12 9 6 5 5 8 12 16 18 17 20 21 23 29 27 26 24

GFSNE_700_spd_030.txt.gz
Wind_Speed
43 43 45 46 48 50 52 54 59 69 73 72 72 72 71 72 71 69 66 64 62 60 58 56 56 58 60 60 62 64 64 62 68 71 72 67 67 52
44 45 46 49 50 51 54 55 57 61 72 71 72 72 71 69 65 62 60 57 54 50 49 47 44 47 51 54 55 55 54 53 59 54 51 47 47 48
45 47 48 51 52 53 55 57 59 62 69 72 70 67 65 62 61 58 54 51 49 47 47 48 51 50 45 41 41 41 41 39 40 39 42 43 47 52
47 49 51 53 54 55 58 60 63 64 65 69 66 61 57 55 53 51 49 48 49 46 42 42 41 42 43 42 42 41 41 41 44 43 46 47 44 48
49 51 53 54 56 58 61 63 63 62 60 60 60 54 52 51 49 49 49 46 44 43 43 42 41 41 41 42 44 44 45 46 46 45 45 43 41 41
50 51 53 55 58 61 63 62 59 57 54 52 52 52 52 48 48 48 49 45 45 42 36 34 37 37 37 39 40 41 42 44 45 46 48 48 47 46
50 52 55 58 60 60 58 56 54 51 48 47 49 51 47 44 43 46 48 42 37 42 39 34 37 34 32 32 33 34 37 39 41 43 46 47 48 48
52 55 57 59 58 55 51 49 46 43 43 45 48 44 42 43 43 40 41 44 43 39 42 38 38 36 34 32 31 32 33 35 39 41 44 46 46 46
55 57 58 55 52 50 47 45 41 38 38 42 42 39 42 38 38 40 40 41 41 41 44 42 38 37 35 32 30 31 32 36 39 40 41 44 44 44
56 56 53 51 47 46 45 43 41 38 36 35 35 34 33 35 37 40 41 44 43 41 43 45 41 39 35 29 24 24 30 35 35 34 33 36 39 41
55 51 48 47 45 43 42 42 41 34 32 31 27 28 30 33 36 40 40 44 43 39 36 45 42 42 34 19 13 20 23 24 25 26 28 30 32 34
53 47 44 43 42 39 40 41 38 34 31 25 27 27 30 31 32 36 38 39 39 41 37 44 42 42 28 20 16 18 19 20 24 28 31 32 33 36
48 44 42 41 39 38 37 35 34 33 29 30 30 31 32 32 30 30 31 33 34 38 37 40 39 33 29 27 21 23 24 21 23 27 28 28 29 35
44 43 40 39 37 37 32 31 30 29 30 30 32 32 32 27 27 28 28 26 29 34 34 33 32 27 27 27 31 30 31 29 30 33 30 26 26 28
43 39 38 37 36 31 29 29 28 29 29 31 32 32 26 26 28 28 25 25 24 26 27 27 22 21 24 30 35 38 41 36 34 34 33 30 26 26
42 38 36 35 32 29 27 24 26 27 30 33 31 28 23 24 25 27 28 28 25 19 21 20 19 20 22 26 30 36 40 45 43 39 31 27 19 24
39 37 34 32 28 25 22 22 24 26 29 30 30 25 22 24 24 28 28 27 27 24 15 10 14 16 19 22 26 34 41 44 43 38 25 17 18 20
36 35 33 30 27 24 23 22 24 27 29 30 28 24 24 25 28 27 27 26 25 20 17 14 13 11 13 19 29 36 39 42 42 36 23 20 18 23
34 31 30 27 24 23 23 25 27 27 28 28 26 24 24 26 28 27 26 24 20 18 16 15 16 19 20 22 28 34 37 41 40 34 25 24 22 25
29 29 26 24 23 23 24 26 26 26 24 24 24 25 27 27 27 26 25 24 21 18 14 14 15 18 21 26 30 30 33 37 38 34 21 26 20 20
26 24 23 22 22 24 24 24 23 22 23 25 25 26 26 26 25 25 23 21 20 18 15 12 14 16 18 19 19 23 28 31 32 36 23 19 19 15
23 21 20 21 23 23 22 22 19 22 23 24 24 24 24 24 23 23 22 22 18 17 16 13 12 13 14 16 20 22 24 27 27 30 33 28 26 24
19 19 20 21 21 22 22 20 22 23 24 23 23 22 22 20 20 21 21 21 19 17 15 13 12 12 10 12 16 17 20 24 26 24 27 30 29 24

GFSNE_700_spd_033.txt.gz
Wind_Speed
42 41 41 43 44 46 49 52 56 64 67 67 67 69 68 67 66 66 64 60 57 54 53 53 51 50 50 51 51 45 42 48 54 63 62 60 47 51
42 42 43 45 46 48 50 53 55 58 69 66 68 67 66 65 62 59 55 52 50 50 48 48 47 46 43 44 47 49 52 54 56 50 46 46 49 52
43 44 45 47 48 49 51 53 56 59 66 69 66 64 62 60 55 50 49 47 45 38 37 37 37 39 41 41 42 43 44 45 44 41 41 42 43 44
43 45 46 48 49 50 53 55 58 59 62 66 62 59 56 51 48 45 43 40 38 39 37 33 35 36 38 41 42 42 43 45 45 45 43 42 42 47
45 47 48 50 51 53 55 58 59 58 57 58 57 53 50 45 44 42 43 40 38 35 31 33 36 34 36 38 40 41 42 42 45 45 47 48 47 44
46 48 50 51 53 55 57 59 58 56 52 51 51 49 46 42 41 44 43 34 37 35 28 33 32 32 34 35 36 37 38 40 41 42 42 43 45 47
47 48 49 51 53 56 56 55 52 49 47 46 47 47 41 40 41 39 39 38 34 39 33 32 36 34 34 33 35 36 37 39 39 38 39 40 42 43
49 49 51 53 55 54 52 48 46 44 40 42 45 41 39 39 35 38 40 41 40 38 43 33 37 35 37 34 34 35 36 38 39 39 39 38 39 41
50 51 53 55 54 51 47 45 42 36 36 39 39 36 37 34 37 38 38 42 42 42 43 38 35 36 34 30 28 32 34 34 33 31 29 30 31 34
51 52 54 52 49 47 45 43 38 35 33 32 31 31 32 34 36 40 42 44 40 36 36 41 38 35 25 16 19 24 27 28 27 27 25 25 24 26
52 51 50 48 45 43 41 40 37 32 29 29 26 28 30 32 37 40 38 41 40 32 29 39 34 32 15 10 15 20 24 26 28 30 29 29 29 30
52 49 45 43 41 38 38 38 36 31 28 23 24 27 31 32 32 31 33 36 38 33 32 38 33 29 12 18 22 24 24 27 27 27 28 28 30 34
50 44 41 40 37 36 35 34 32 31 26 26 26 29 31 31 25 26 28 31 34 33 33 36 32 24 25 28 22 27 32 35 33 28 27 27 29 31
44 41 40 38 36 33 33 30 29 27 27 27 29 31 31 26 23 25 26 28 29 32 31 29 28 25 25 25 29 30 33 37 41 36 27 23 24 28
43 40 36 35 33 31 29 28 26 27 27 29 31 31 30 24 24 26 26 28 25 26 26 25 23 23 23 25 33 35 41 42 42 38 26 21 21 23
42 38 36 34 32 29 26 25 26 27 29 31 32 31 27 23 23 28 30 29 26 19 20 21 19 21 22 23 30 36 37 43 46 36 24 22 25 25
41 37 34 30 27 24 21 22 23 26 27 28 28 26 24 23 24 27 28 27 27 25 18 15 16 18 21 28 30 32 35 39 43 29 21 25 19 15
37 34 29 28 25 22 22 21 24 26 27 25 24 26 27 27 27 26 28 27 26 23 23 18 15 14 17 17 28 31 33 37 38 23 19 25 15 17
31 27 26 24 22 22 23 25 25 24 23 24 27 29 29 28 28 27 27 26 24 22 21 19 19 21 22 23 23 28 32 34 33 20 21 27 18 17
24 23 22 21 21 23 24 23 22 21 23 26 27 29 28 27 26 26 26 26 25 22 20 18 17 17 21 25 28 24 28 30 32 23 19 22 20 17
21 20 20 21 22 23 23 21 21 23 25 27 26 27 26 26 24 25 25 25 25 23 20 17 16 16 16 19 20 20 22 26 28 28 22 18 18 18
18 18 20 21 21 22 20 19 20 22 23 24 24 24 24 24 24 25 24 25 23 21 19 19 17 16 14 16 19 19 19 22 22 25 26 21 25 27
17 18 18 19 20 21 20 20 22 23 23 23 23 23 23 23 24 24 23 23 23 21 19 16 16 16 15 15 16 16 18 20 19 21 23 22 21 20

GFSNE_700_spd_036.txt.gz
Wind_Speed
43 43 43 44 43 44 45 48 52 57 58 59 61 63 64 65 65 65 64 62 58 53 51 49 47 46 46 46 48 50 51 52 52 52 47 45 47 54
44 44 44 44 44 45 48 50 52 56 63 60 62 63 63 63 62 60 56 53 50 48 45 41 40 42 43 43 42 42 44 45 47 48 47 50 50 50
45 44 44 45 46 48 50 52 54 56 62 63 62 61 60 59 57 52 49 48 42 39 38 37 37 37 38 39 40 40 41 42 43 44 47 46 44 44
45 45 45 46 47 49 51 53 55 57 59 64 62 59 56 55 51 49 46 42 40 38 31 32 36 36 37 39 39 39 40 41 42 43 43 45 45 42
45 45 46 48 49 51 53 55 56 57 57 59 60 54 54 51 47 45 43 41 36 34 32 33 36 35 37 38 39 40 41 43 42 43 43 44 44 46
44 46 47 49 51 53 54 55 56 56 55 53 52 53 52 46 44 43 43 34 37 36 32 38 36 36 35 34 36 39 41 43 44 45 45 42 42 41
45 47 49 50 51 53 54 54 54 52 49 48 49 49 47 42 41 39 39 40 35 42 38 33 32 30 29 33 37 39 42 42 41 41 41 40 40 41
47 48 50 52 52 52 52 50 48 46 44 44 46 47 41 39 38 36 40 42 45 36 41 30 31 27 31 31 34 36 32 28 27 27 28 29 30 33
48 49 51 52 53 52 49 46 45 42 40 41 44 40 39 34 37 37 38 41 43 37 39 34 29 30 29 26 26 25 26 28 30 31 30 29 27 27
49 50 52 51 49 47 46 46 44 41 38 38 36 34 32 33 35 39 41 40 35 34 37 39 31 30 20 14 16 18 20 22 26 29 32 33 33 30
51 50 49 48 46 45 45 43 42 38 35 32 31 29 28 31 35 39 37 37 37 33 28 38 31 31 18 9 12 16 19 24 28 32 34 33 33 35
50 48 46 46 44 41 40 40 40 35 32 27 25 26 29 31 33 36 33 34 36 37 32 38 33 34 19 6 11 19 22 27 34 37 38 38 34 35
49 48 45 42 40 38 38 36 36 34 29 26 25 27 30 32 32 32 30 33 35 36 33 37 34 31 29 28 19 22 29 33 38 38 38 31 28 31
47 44 41 39 37 36 35 33 31 29 27 26 27 29 32 31 29 27 27 30 33 35 33 31 35 32 30 30 31 29 31 35 39 40 34 26 24 26
43 41 38 36 34 31 30 28 27 27 28 29 30 31 30 29 27 27 26 30 30 28 29 29 31 30 29 30 36 35 39 39 35 37 27 25 31 33
42 39 36 33 29 27 25 24 26 27 29 30 30 28 28 28 27 30 31 30 29 24 22 26 27 27 27 28 32 35 34 37 34 32 29 27 35 30
40 36 31 26 24 23 22 24 26 28 28 27 26 28 30 30 28 28 29 28 28 29 24 21 22 23 22 27 29 29 31 30 30 31 28 29 28 27
34 30 25 24 22 22 23 23 25 24 24 24 27 30 31 30 27 25 27 28 28 27 26 24 21 18 17 16 24 28 27 30 27 25 24 26 30 26
27 24 23 22 22 23 23 23 22 21 23 26 27 28 28 27 28 27 27 27 25 26 24 25 23 23 22 20 15 24 29 29 26 23 20 22 25 26
21 21 20 21 22 22 22 22 21 22 25 26 27 28 27 27 26 27 28 28 26 26 24 22 21 21 23 24 24 22 25 29 27 23 18 16 17 19
18 19 21 21 21 22 22 21 22 24 26 27 26 27 26 25 25 27 27 26 26 27 24 22 20 20 22 21 22 23 19 24 23 23 18 15 14 12
17 19 20 21 22 22 22 22 23 25 25 26 25 24 23 24 25 26 26 26 24 25 22 21 19 20 20 21 21 21 21 19 18 20 19 18 20 21
16 18 19 20 21 22 22 23 24 25 25 25 24 24 24 25 24 24 24 23 23 22 22 18 17 19 21 22 21 20 20 22 18 15 15 15 15 15

GFSNE_700_spd_039.txt.gz
Wind_Speed
41 43 45 45 44 45 45 46 49 53 53 51 54 55 58 60 62 64 64 63 59 55 54 51 48 47 46 45 43 44 44 44 46 45 46 45 44 44
43 46 46 45 46 46 46 47 49 53 58 55 57 58 59 61 61 61 59 56 52 49 47 44 42 44 43 39 38 38 38 38 39 41 42 42 40 40
45 47 45 46 46 46 47 49 51 52 58 58 58 58 58 59 58 55 52 49 46 42 40 38 37 38 37 39 39 38 38 38 38 39 41 42 42 41
47 46 46 47 47 48 49 51 52 55 58 62 60 58 56 54 53 52 48 46 42 39 35 31 36 35 39 41 42 42 41 40 41 41 42 42 44 44
45 46 46 47 48 49 50 53 55 56 57 59 60 55 53 51 50 47 46 43 40 34 33 32 37 37 41 40 40 39 40 41 41 42 43 42 43 43
45 45 46 47 48 50 52 54 55 56 55 55 54 52 51 49 46 46 43 40 35 34 35 34 40 36 34 33 32 34 38 40 37 32 30 30 31 33
44 46 47 48 50 52 53 53 53 53 52 50 50 49 48 46 43 42 41 38 35 35 43 32 36 31 28 26 30 35 36 31 23 21 21 23 24 26
45 46 47 49 52 53 52 52 50 50 49 47 46 47 45 42 39 39 37 40 42 32 42 28 33 26 25 26 29 33 27 21 20 21 23 24 26 27
45 47 49 50 50 51 51 50 48 45 43 42 44 43 42 37 37 36 36 38 40 37 37 33 30 25 26 23 28 26 21 20 20 23 27 29 32 33
47 48 49 50 48 49 49 47 45 43 40 40 40 39 36 33 34 37 39 40 37 34 34 41 32 30 25 21 21 19 20 21 24 28 31 36 39 40
49 49 48 49 48 47 46 44 42 39 36 34 34 33 30 30 32 37 38 40 39 31 29 39 37 34 27 18 16 18 21 23 26 31 36 39 42 44
47 47 47 47 46 44 42 41 39 37 34 30 27 27 28 29 31 34 37 38 37 33 29 39 39 40 33 18 10 16 21 23 28 32 37 40 42 43
48 47 45 43 42 40 38 36 34 34 30 28 28 27 29 31 31 30 31 33 35 36 32 39 39 36 38 34 19 16 20 23 28 32 35 37 35 28
47 46 42 40 38 34 32 30 30 29 28 28 28 29 30 28 26 29 30 31 33 35 33 33 38 37 37 34 31 20 22 26 29 34 36 34 28 25
44 41 39 36 32 27 27 28 27 27 28 29 28 27 26 28 29 30 28 29 27 27 29 31 34 35 34 34 34 27 31 26 29 33 32 32 29 29
41 37 33 28 25 26 24 24 25 27 28 28 27 27 29 30 30 30 29 28 27 22 22 28 31 32 33 30 30 30 29 35 34 31 33 31 28 29
38 31 26 23 22 22 23 25 26 27 27 27 29 31 32 32 29 28 28 27 28 29 26 25 25 27 28 29 30 27 31 30 30 32 33 33 24 28
30 25 23 23 23 23 23 23 25 26 26 28 30 32 33 32 30 26 27 28 29 27 28 30 30 26 21 18 25 27 29 31 28 30 27 29 24 21
24 22 22 23 23 23 23 24 24 24 26 29 30 30 30 29 29 28 29 30 28 27 27 29 29 28 28 24 14 17 30 29 30 25 25 23 23 23
20 20 20 21 21 22 23 24 24 25 27 28 29 28 29 28 28 30 30 32 30 28 27 25 26 24 26 29 26 16 20 27 30 28 21 16 20 23
17 19 20 21 21 23 24 25 25 26 28 28 27 26 26 27 27 29 30 28 29 28 27 24 23 22 24 25 25 20 16 20 26 26 25 20 14 12
16 18 19 20 22 23 24 25 24 25 26 27 26 25 25 26 26 27 27 26 25 25 24 22 21 22 23 25 25 23 21 20 20 20 22 22 20 20
15 16 18 20 21 23 23 24 25 25 25 26 26 27 27 24 23 23 24 24 25 24 24 22 19 20 21 22 23 23 24 23 20 16 15 15 15 19

GFSNE_700_spd_042.txt.gz
Wind_Speed
35 38 41 43 45 47 47 48 50 52 50 46 48 48 50 52 54 57 60 60 59 57 55 54 53 52 50 49 47 44 42 40 40 39 38 38 37 36
38 41 43 45 47 47 47 46 47 50 56 52 52 53 54 55 57 58 58 58 53 50 50 48 43 42 43 41 38 35 35 36 37 38 38 39 38 37
42 43 45 47 47 47 46 46 47 49 55 54 55 57 58 58 58 57 54 52 49 46 43 38 36 37 37 35 36 37 35 38 38 39 39 40 40 41
43 45 46 47 47 47 47 47 48 50 55 58 58 58 58 56 56 55 51 48 45 40 36 33 30 37 34 38 40 39 40 39 38 38 38 37 37 38
45 46 46 46 46 46 47 49 50 52 54 57 58 57 55 52 52 50 46 43 39 35 31 29 33 35 37 39 39 38 38 37 36 34 33 34 34 35
45 45 45 45 46 48 49 51 52 53 53 54 55 52 50 47 45 44 43 37 34 30 29 30 36 34 32 33 33 34 35 35 34 32 29 25 24 23
43 43 43 45 47 50 52 53 54 54 54 53 51 49 46 43 41 40 39 37 30 29 35 29 35 30 28 28 29 29 34 35 32 26 20 19 20 21
41 42 44 45 47 49 50 52 52 51 50 49 47 45 42 39 38 37 36 35 34 29 39 32 34 29 28 27 26 27 34 31 27 20 20 19 20 21
42 43 44 46 47 49 50 51 47 44 43 42 42 40 40 36 37 35 32 34 34 36 42 39 32 29 26 25 25 26 32 29 25 22 23 23 26 28
43 44 46 48 50 51 51 50 46 41 38 37 36 36 35 32 32 36 36 37 35 34 36 43 31 29 26 25 21 23 27 27 26 26 27 28 30 34
43 45 47 49 49 49 48 46 43 37 34 30 30 30 30 30 31 36 35 37 36 32 27 38 33 32 28 21 18 17 24 27 28 29 30 31 34 38
44 45 45 46 46 44 43 42 38 32 29 26 23 25 28 29 30 33 34 36 37 36 28 36 35 37 34 23 19 14 21 25 27 29 30 32 34 38
46 46 45 44 42 39 35 32 30 29 27 27 27 28 28 28 26 27 30 35 36 35 30 35 36 34 37 37 26 19 17 21 27 27 27 29 31 34
47 45 43 40 36 30 27 26 26 26 28 28 28 26 27 26 27 29 30 32 32 33 30 31 35 36 38 39 34 22 18 19 23 24 27 27 28 32
43 41 38 33 27 23 24 25 26 27 28 27 26 25 27 29 29 30 28 29 27 25 28 30 33 34 37 37 38 29 27 21 20 24 27 28 30 30
38 34 29 24 23 23 24 25 26 27 28 28 28 29 29 30 28 30 29 27 26 22 23 28 30 33 36 34 34 32 29 31 26 25 30 28 26 27
35 27 21 20 20 21 22 24 26 27 27 27 29 31 31 31 28 29 27 27 29 31 27 24 27 30 31 32 30 26 29 29 27 27 29 31 24 25
26 20 19 19 21 22 22 22 25 27 27 28 30 32 33 32 31 27 28 30 31 30 30 31 32 31 26 21 26 28 26 28 26 27 28 33 27 20
19 17 17 19 20 22 23 25 25 26 28 29 31 31 32 31 32 31 29 30 30 29 27 29 31 32 32 26 18 25 32 29 30 27 28 27 28 23
15 15 16 18 19 21 23 25 25 26 27 28 29 29 29 31 31 31 28 29 29 29 29 27 28 28 30 32 31 21 20 29 29 30 28 24 25 23
13 14 16 17 19 21 23 24 26 27 27 28 29 29 28 30 29 28 28 27 27 28 28 26 25 25 28 29 29 23 14 19 26 31 31 28 26 20
12 14 16 18 20 21 22 24 25 26 27 28 29 30 30 29 28 27 27 26 25 26 26 24 25 25 25 27 26 24 22 19 20 23 26 29 31 28
11 13 15 18 19 20 22 23 25 26 27 28 30 31 29 28 25 24 24 24 25 24 24 23 22 22 23 24 24 24 24 23 23 22 23 24 23 23

GFSNE_700_spd_045.txt.gz
Wind_Speed
29 31 35 38 41 43 46 49 52 54 53 45 45 44 46 49 50 53 56 57 58 58 59 60 59 58 57 57 56 55 49 46 44 40 38 37 36 36
31 34 37 40 43 47 49 50 50 52 56 50 49 49 50 52 53 56 58 59 57 56 55 54 52 51 51 50 50 45 42 38 36 37 38 38 37 37
33 36 40 43 45 49 49 48 48 50 53 52 53 53 55 56 57 58 57 56 54 50 48 44 42 44 44 41 42 38 37 36 38 39 40 40 40 40
36 40 42 47 48 49 49 48 48 49 52 55 56 56 57 58 58 57 54 51 48 43 40 37 34 36 35 36 36 39 39 39 40 40 39 37 36 36
39 43 46 48 47 48 48 48 49 50 51 55 58 58 57 54 54 51 49 45 41 37 33 31 31 31 33 36 38 39 38 38 37 36 35 33 32 33
43 44 46 46 46 47 48 49 51 52 53 56 58 57 55 51 48 48 45 40 35 30 29 26 30 30 33 35 37 36 36 38 37 35 31 31 31 33
42 42 43 44 46 47 49 51 53 54 56 56 56 54 51 47 45 43 41 38 29 26 29 27 32 32 31 33 34 32 34 37 38 35 32 31 30 28
39 41 42 44 45 47 49 51 54 53 52 52 51 50 46 43 40 39 38 35 32 23 32 35 32 33 31 31 30 31 33 35 37 34 30 28 28 27
39 40 41 44 46 48 51 52 51 48 46 46 47 42 40 36 36 36 35 35 34 31 37 42 31 34 31 29 28 29 31 33 35 33 31 28 29 29
38 41 44 46 48 50 51 51 49 46 42 39 35 33 33 32 34 37 39 41 38 32 34 43 37 35 31 27 25 26 27 29 33 34 31 29 29 30
39 42 45 48 48 48 49 47 44 36 30 26 27 28 30 31 33 38 36 38 37 32 31 40 36 36 29 23 20 20 24 26 32 35 33 31 30 32
41 42 44 46 46 44 44 40 34 28 26 25 23 25 28 29 29 32 35 38 39 39 28 36 35 36 32 23 21 21 23 24 29 34 35 34 33 35
43 43 43 43 41 38 33 28 28 29 28 27 26 26 26 26 26 28 31 35 37 36 28 35 36 35 38 39 29 27 23 22 25 30 33 34 35 36
44 43 43 40 34 29 25 25 26 27 28 27 27 26 26 26 26 28 29 31 32 34 31 31 37 37 40 41 38 30 25 22 22 24 28 32 33 35
42 41 38 33 26 21 23 25 26 27 28 28 28 27 28 30 29 31 28 30 27 25 29 32 35 36 37 39 42 34 31 23 21 22 25 28 30 32
38 34 30 23 20 20 21 23 26 28 30 31 31 31 31 32 30 30 31 29 28 24 25 29 33 34 36 36 37 35 29 31 28 27 26 24 27 29
33 28 21 17 17 18 20 22 25 27 28 29 30 31 31 32 32 29 30 31 31 30 28 25 27 31 32 34 33 30 29 28 27 28 27 25 24 26
27 20 15 15 16 17 18 20 24 26 28 29 29 31 32 32 32 31 32 31 31 30 30 29 31 31 28 24 28 26 25 28 27 26 27 31 26 21
20 13 13 14 15 18 20 21 22 24 26 28 29 30 31 32 33 32 31 30 29 29 27 28 30 32 34 30 21 26 33 31 33 31 29 28 31 21
12 10 12 13 15 17 19 21 22 24 26 27 28 31 32 33 33 31 29 30 29 28 27 25 27 28 30 33 32 22 22 30 32 34 33 30 28 25
9 10 11 13 15 17 18 20 23 25 27 29 28 30 32 32 30 28 28 27 27 27 26 24 24 25 27 29 28 24 20 23 29 34 34 33 31 27
8 9 12 14 15 16 18 20 22 24 26 27 28 30 31 30 29 28 26 26 24 25 25 25 26 26 25 27 28 28 29 26 23 24 26 31 33 34
8 10 12 13 14 15 17 19 22 24 26 27 29 30 30 29 28 27 26 25 26 27 28 27 25 24 24 26 27 31 31 28 25 20 19 23 23 23

GFSNE_700_spd_048.txt.gz
Wind_Speed
30 37 32 35 37 39 41 44 48 54 55 50 48 47 48 48 50 52 54 56 58 60 62 62 63 63 63 63 63 61 59 56 53 50 49 46 44 42
33 36 35 36 38 40 43 47 51 55 58 55 51 50 50 51 52 54 57 61 63 63 63 62 61 59 59 56 53 51 50 48 46 42 40 39 40 40
33 36 34 36 41 44 47 52 54 54 55 54 54 53 54 54 54 57 59 61 61 59 58 56 54 51 50 50 48 45 43 42 40 39 39 39 42 42
40 36 36 38 44 48 50 53 52 51 52 54 55 56 57 57 60 61 59 58 57 53 51 48 46 46 44 44 42 41 41 40 39 39 41 41 42 43
33 34 37 44 45 47 48 49 50 50 51 54 57 58 60 59 60 58 57 52 48 44 41 38 39 40 39 39 40 41 40 42 42 39 39 37 37 38
32 37 40 42 43 44 46 48 49 51 52 54 58 61 60 57 55 55 53 46 43 36 32 35 34 34 34 38 41 41 43 44 42 39 38 36 34 33
34 38 40 40 42 44 46 48 50 52 54 57 59 59 56 53 49 46 44 41 36 30 30 36 33 36 34 38 39 39 41 42 41 38 38 37 34 34
36 37 38 40 43 45 47 49 52 54 55 55 55 52 48 43 39 39 40 39 40 32 34 38 35 35 35 36 34 36 37 38 39 38 37 38 36 35
34 36 38 41 44 46 48 51 52 51 49 49 47 41 38 38 39 39 39 39 38 32 34 40 32 34 33 34 32 34 33 35 39 38 37 37 37 34
35 38 40 42 44 47 50 52 51 46 43 41 35 34 36 35 36 38 38 40 38 35 33 42 38 36 34 30 28 28 28 32 34 36 37 37 36 34
36 39 42 44 46 49 49 49 46 40 33 29 31 31 33 33 34 37 37 40 39 39 32 40 40 37 34 27 22 20 24 27 30 35 37 37 35 35
36 40 42 45 46 46 46 45 39 31 27 25 24 26 28 30 31 34 37 41 41 41 33 39 38 37 37 27 22 21 24 24 29 34 36 36 36 37
39 41 42 43 44 43 40 35 29 27 25 25 26 26 27 28 29 31 35 38 38 38 34 38 40 37 41 41 36 30 28 26 29 30 31 33 35 37
42 43 44 44 41 36 30 25 24 24 24 25 27 28 30 30 30 31 33 34 35 35 35 35 40 40 43 44 44 34 28 28 30 26 26 28 32 36
44 43 43 39 33 26 22 22 22 23 24 26 28 29 31 32 32 34 33 32 32 30 32 35 37 39 40 41 43 36 34 27 24 25 24 25 28 33
41 38 36 31 24 18 18 20 22 24 26 28 29 30 31 32 33 34 35 35 34 28 25 29 32 36 38 37 39 35 30 33 28 27 28 27 26 27
36 32 28 22 17 16 17 18 21 23 25 27 30 31 32 33 33 34 34 33 33 31 27 24 27 32 34 36 35 31 32 30 28 30 31 28 22 22
30 25 18 13 12 12 14 16 20 22 25 27 29 31 33 33 33 32 33 32 31 29 28 27 29 30 29 25 29 27 23 28 26 26 26 28 20 16
22 15 10 9 10 12 13 15 17 21 24 26 29 30 31 32 33 32 31 30 29 29 27 27 28 31 34 33 25 27 35 32 33 31 30 31 30 21
13 7 8 9 10 12 13 15 18 20 23 25 27 29 31 32 31 31 29 29 29 27 26 25 27 29 31 34 34 25 24 31 34 36 33 30 29 25
8 8 8 10 11 12 13 16 19 21 23 25 26 28 29 31 30 30 29 28 29 29 29 27 27 27 28 29 31 28 25 28 31 32 30 29 27 25
7 8 10 11 11 12 14 16 18 21 22 23 25 27 29 30 30 30 30 30 29 30 30 30 28 27 26 29 31 33 31 26 21 21 23 27 31 34
8 9 10 11 12 13 15 17 18 21 22 22 24 26 28 29 30 30 30 30 30 30 32 32 28 26 27 29 31 31 27 22 20 15 14 21 25 29

GFSNE_700_spd_051.txt.gz
Wind_Speed
43 42 39 37 38 37 36 39 42 44 44 44 48 51 52 51 51 52 53 54 56 57 59 61 63 64 65 66 67 67 67 66 63 61 57 54 52 48
48 46 39 45 38 39 38 40 42 45 51 53 53 52 52 51 50 52 54 56 59 62 64 66 67 67 66 65 63 60 56 55 53 52 48 44 42 39
48 41 45 44 39 38 42 42 45 50 53 54 54 52 52 52 52 54 56 60 62 62 62 62 62 60 58 56 54 52 50 48 46 44 42 39 38 37
45 50 42 39 39 38 38 42 46 49 52 52 52 52 54 54 56 60 61 61 60 57 54 52 51 49 48 47 47 47 47 47 44 43 40 39 39 40
47 36 39 37 34 35 41 43 47 46 47 50 52 54 55 57 60 61 60 58 53 46 41 41 40 40 41 43 45 45 45 45 44 44 41 41 41 41
34 31 31 34 37 39 43 42 43 45 47 50 52 56 59 58 58 59 57 48 42 37 36 39 38 39 40 42 45 46 47 47 48 47 46 42 41 40
28 29 32 35 38 39 41 41 44 46 48 52 55 57 56 56 53 49 44 42 39 36 36 38 38 38 36 38 41 43 44 46 47 47 45 41 40 39
28 32 34 36 36 37 40 43 46 49 51 54 55 55 53 48 42 40 41 40 40 36 35 35 35 35 34 35 36 37 39 42 42 42 40 37 37 37
30 30 32 35 37 39 42 45 48 49 48 51 52 48 43 37 39 39 39 39 40 38 39 38 38 37 36 34 33 33 35 36 36 36 36 35 33 35
31 33 34 36 38 41 45 47 48 45 46 45 41 36 35 35 36 38 40 42 42 41 41 42 41 40 38 34 29 29 28 29 32 34 35 35 34 34
32 35 37 39 42 45 47 47 45 43 40 33 29 30 31 33 36 39 40 43 43 42 42 43 41 42 39 35 28 23 23 27 30 32 35 38 38 36
34 37 40 43 44 44 45 45 42 36 28 24 24 26 29 32 34 37 40 43 44 44 41 44 43 44 43 38 31 27 26 27 29 31 35 37 38 38
37 40 42 44 44 43 42 40 35 28 23 23 23 25 27 29 31 34 36 39 40 40 35 39 42 42 43 45 38 30 28 26 28 29 31 34 36 36
42 43 44 43 41 39 36 31 25 22 22 22 23 25 28 29 31 33 34 36 38 38 35 37 42 41 42 43 42 34 29 28 29 28 29 30 31 32
46 45 44 41 36 32 26 20 18 18 19 21 23 25 28 31 32 34 34 36 35 33 32 34 37 38 39 41 43 37 35 30 25 27 27 26 26 28
42 40 36 32 27 20 15 15 16 18 19 22 23 26 29 30 31 35 35 34 33 28 26 29 33 36 38 38 40 37 32 34 30 28 30 27 26 27
31 29 25 21 16 13 14 15 17 19 21 23 25 27 28 30 31 32 32 31 31 30 26 25 28 31 33 35 34 32 31 28 27 29 29 28 24 24
24 20 16 10 10 11 13 15 17 18 21 23 25 27 29 31 31 29 31 31 30 28 28 29 30 31 30 28 32 28 22 27 25 25 27 29 22 18
14 11 8 9 10 12 13 14 15 18 20 23 24 26 29 30 32 32 31 30 28 28 28 29 31 35 37 34 25 29 36 34 35 33 30 29 27 20
8 8 8 8 10 12 13 14 17 19 21 22 24 26 30 31 31 32 32 31 30 30 29 30 32 33 34 36 37 28 28 33 32 32 29 25 23 18
7 7 8 10 11 12 14 16 19 19 20 21 24 26 28 30 30 31 32 32 32 32 32 31 31 29 29 31 32 31 25 22 23 26 26 25 24 22
6 8 9 11 12 13 16 18 19 20 21 21 23 26 28 30 32 32 32 33 32 32 32 31 31 29 28 31 33 30 25 20 17 20 22 26 31 34
8 9 10 12 13 15 17 18 19 20 21 22 25 27 29 31 32 33 34 33 33 33 32 31 29 27 28 28 26 24 22 21 20 22 23 27 31 35

GFSNE_700_spd_054.txt.gz
Wind_Speed
42 39 40 38 42 42 43 47 41 46 45 40 41 42 46 50 53 53 52 52 53 53 54 54 56 59 60 62 64 64 63 63 62 60 60 58 56 53
44 46 42 44 46 46 53 45 48 47 48 45 44 46 48 48 49 50 51 53 54 55 57 60 62 63 63 63 61 58 57 55 52 50 47 46 46 45
45 46 42 45 47 50 58 51 47 41 46 42 44 45 46 47 47 49 51 53 55 57 59 60 60 58 56 54 51 49 47 46 44 43 43 43 43 41
41 43 44 44 48 47 51 37 36 38 42 44 44 44 45 46 48 50 53 56 58 56 55 53 51 47 46 45 45 45 45 43 43 43 43 42 41 39
39 44 45 46 45 38 36 35 37 40 41 42 46 45 46 48 51 53 56 55 54 49 45 43 43 41 40 41 43 44 43 43 44 45 46 47 45 43
38 43 41 40 35 32 33 38 40 38 39 41 44 46 48 51 53 54 55 51 46 38 37 39 39 38 37 39 41 42 42 43 45 46 47 46 45 43
41 33 31 30 30 32 35 37 38 39 39 42 45 48 50 51 51 51 48 43 38 35 35 36 36 36 35 37 39 39 41 42 44 46 46 45 43 40
25 25 28 30 32 35 35 37 39 40 42 45 48 49 50 49 46 41 38 36 37 35 36 35 37 37 38 40 39 38 37 38 39 41 42 42 40 37
25 27 28 31 34 35 36 38 40 41 44 47 48 47 46 41 38 35 34 35 37 38 42 42 42 42 40 38 36 34 33 33 35 37 37 37 35 34
25 25 28 32 35 38 39 42 43 41 43 43 42 39 34 31 31 33 34 37 39 41 42 47 42 43 40 37 34 30 28 29 31 35 38 36 35 35
25 29 33 36 39 43 46 46 43 40 39 36 32 27 27 27 30 33 34 38 41 41 40 46 42 42 39 35 32 26 23 26 31 35 34 36 38 39
29 34 39 42 44 44 45 43 39 36 30 23 21 21 23 26 29 32 35 39 42 43 38 45 41 41 40 33 30 25 23 23 28 29 31 33 36 39
35 39 42 44 43 41 39 37 33 27 19 16 15 18 20 23 26 29 33 37 40 39 36 42 41 38 41 41 33 28 25 22 25 26 29 32 34 35
40 41 42 41 39 36 32 29 24 18 15 14 16 19 21 23 26 29 31 34 37 38 34 37 41 39 41 41 39 32 27 25 26 25 26 27 29 31
39 38 34 30 27 24 22 18 14 13 14 15 17 20 23 25 27 29 30 31 30 30 32 31 34 36 39 39 42 35 34 27 23 25 26 25 25 26
28 25 21 18 16 14 11 10 10 12 14 15 18 21 23 25 27 30 30 30 28 24 26 30 32 35 36 36 37 35 32 34 28 26 29 27 25 25
18 16 14 11 9 9 9 11 12 14 17 19 21 23 25 26 27 30 31 31 32 30 25 25 29 32 34 37 35 30 28 25 27 28 28 27 23 25
12 9 7 7 8 8 10 13 15 17 19 20 22 24 26 27 28 29 31 32 33 31 30 30 30 30 30 28 31 27 24 28 27 27 27 26 20 18
5 5 6 7 8 10 12 13 15 18 20 22 22 24 27 28 30 32 32 33 32 33 30 30 32 35 37 34 26 32 34 29 27 24 22 21 17 13
4 5 6 8 10 11 13 15 17 19 20 21 22 24 27 30 31 33 34 35 33 31 29 29 31 33 35 36 36 27 23 26 26 24 22 21 19 17
3 6 8 10 11 13 14 17 19 20 19 20 22 25 28 30 32 33 33 34 35 33 32 30 30 29 29 28 28 23 17 19 21 22 23 24 23 19
7 8 10 11 13 15 17 18 19 21 21 22 25 27 29 31 33 33 34 34 33 32 32 30 30 29 26 28 25 25 22 18 20 22 23 27 29 30
11 10 11 13 15 17 18 20 20 20 21 23 25 27 29 30 32 31 33 35 35 34 34 33 28 27 25 26 25 25 24 23 22 19 22 25 28 32

GFSNE_700_spd_057.txt.gz
Wind_Speed
37 37 38 42 44 42 44 40 46 47 45 48 49 50 53 53 47 47 50 51 51 50 50 50 51 52 53 54 56 58 59 60 60 59 57 57 55 54
39 40 41 43 45 45 47 47 51 49 46 49 50 48 48 43 45 45 49 50 50 50 51 52 54 56 58 59 60 60 60 58 55 51 47 45 45 45
38 41 43 43 46 48 53 46 50 48 47 44 48 43 40 42 43 43 46 50 51 50 52 54 57 58 59 58 57 54 51 48 46 44 43 43 43 42
47 37 41 41 44 44 54 53 41 47 44 46 41 41 42 41 42 45 48 49 50 51 52 54 55 54 51 47 46 46 45 44 43 43 43 42 42 41
44 42 44 47 53 44 42 38 38 41 39 39 40 39 40 42 44 45 47 48 49 49 49 48 45 41 40 40 42 43 43 44 45 45 45 43 42 42
37 42 42 42 36 35 34 33 33 34 40 40 42 42 42 42 45 48 48 47 47 40 39 37 35 35 36 38 42 43 44 46 47 47 47 46 45 44
36 33 32 27 25 27 29 34 36 38 39 39 40 42 43 44 46 46 47 45 38 30 30 29 31 33 34 38 40 41 42 44 45 45 44 44 43 43
33 28 25 24 26 28 34 38 37 38 39 40 41 42 44 43 45 43 41 35 31 26 31 31 32 34 36 36 35 36 36 37 37 38 38 39 40 39
20 20 23 27 31 31 35 37 39 39 40 42 42 41 42 40 41 36 30 30 29 28 34 36 34 36 34 32 31 32 34 34 34 35 37 38 39 37
19 21 25 28 31 34 38 39 39 39 40 40 41 41 39 34 29 26 26 28 29 29 35 41 34 35 33 28 26 27 28 30 32 34 37 39 40 37
20 25 28 31 36 40 43 42 39 37 36 35 34 31 27 23 24 26 28 31 34 31 33 38 33 33 26 21 21 21 22 25 29 33 36 38 39 39
25 30 34 36 39 40 41 38 33 28 25 22 19 17 17 19 23 27 29 32 35 34 35 36 32 35 31 19 19 21 21 24 26 29 33 35 36 38
30 33 34 34 32 28 25 21 17 15 12 9 11 13 16 19 22 25 28 32 33 32 35 40 35 34 36 35 23 23 22 23 25 26 29 32 34 36
29 28 26 25 21 15 13 11 9 6 6 8 11 13 15 18 22 24 26 29 32 34 33 37 38 38 38 35 31 27 26 27 27 25 27 28 28 31
26 22 18 12 9 8 6 5 5 6 8 11 13 16 17 19 22 23 25 27 27 29 32 36 38 37 38 38 40 33 34 22 24 27 26 25 24 26
18 14 10 7 5 5 4 4 5 7 10 13 14 16 17 20 22 25 25 26 25 24 27 32 34 37 37 37 38 35 29 31 24 25 27 25 25 27
13 9 3 1 1 2 4 6 8 10 13 15 16 16 18 20 22 25 28 29 31 30 27 28 32 34 33 34 34 30 27 24 26 26 25 22 19 22
9 3 1 2 3 6 8 10 12 14 15 16 17 18 19 21 23 25 29 32 33 33 32 31 32 31 29 28 28 23 21 23 21 20 19 18 11 13
6 4 5 4 5 7 9 11 14 16 17 17 18 19 21 23 26 28 30 32 32 34 33 32 32 35 35 32 22 27 25 21 20 18 17 16 14 11
8 7 7 8 8 9 11 13 16 17 18 18 19 21 24 26 27 30 31 32 32 33 33 30 30 32 33 35 29 21 21 22 22 20 20 19 19 18
10 10 10 10 11 12 13 14 17 19 18 17 19 21 24 26 27 30 31 31 34 36 36 31 28 28 31 31 28 24 18 21 23 24 24 24 24 23
12 12 11 11 12 13 14 15 17 20 19 19 21 22 23 25 28 29 30 32 33 35 36 32 27 28 28 31 29 27 23 19 21 22 21 24 26 23
13 13 11 11 12 14 16 17 19 20 19 19 20 21 23 25 27 29 31 33 35 37 39 36 30 28 28 29 29 28 26 24 24 21 17 21 19 22

GFSNE_700_spd_060.txt.gz
Wind_Speed
49 50 52 47 44 41 43 45 46 48 49 50 54 51 53 55 47 53 53 51 53 51 52 49 52 51 51 51 52 53 54 55 56 57 58 59 59 59
45 42 46 42 46 40 46 46 46 48 52 54 54 48 50 51 48 48 49 48 47 47 48 50 51 52 52 53 54 56 57 58 58 58 57 56 54 53
42 41 43 43 43 49 44 41 48 48 57 50 51 49 45 44 44 47 45 45 48 47 47 50 51 53 54 56 57 59 58 56 55 52 49 47 47 46
41 41 39 40 39 44 43 44 43 49 45 43 43 41 41 40 43 45 46 47 48 46 48 51 52 53 54 55 55 54 50 46 44 43 43 43 44 45
39 39 38 41 39 41 46 42 46 45 37 42 40 39 41 43 45 45 44 44 45 45 48 50 51 51 49 47 45 41 40 41 43 44 46 48 48 49
32 36 35 38 39 39 45 46 39 40 36 34 37 43 45 42 41 42 43 44 44 44 47 47 43 40 37 37 37 39 41 44 47 48 48 47 47 48
32 36 33 38 41 39 35 30 29 31 35 40 42 41 40 40 42 43 45 45 43 42 40 35 34 32 34 36 37 40 42 44 45 44 43 42 41 42
35 31 28 28 28 28 27 30 33 38 37 39 41 41 41 42 43 42 41 40 35 26 28 24 29 31 33 35 33 36 38 40 40 38 38 38 40 41
21 19 17 20 25 27 32 33 35 38 40 43 42 40 41 39 39 34 30 26 23 25 29 30 31 33 31 28 30 33 35 37 37 36 37 38 38 39
8 15 21 24 28 31 33 35 38 41 42 43 42 37 33 29 25 21 20 23 24 25 32 35 30 31 27 24 25 28 32 35 37 37 36 37 38 37
16 21 24 27 32 36 38 39 40 39 35 29 24 20 17 15 16 18 22 25 27 24 29 33 30 34 26 22 22 24 27 30 33 35 37 38 38 40
21 26 30 34 37 38 36 32 26 21 15 12 9 8 10 13 17 21 24 27 30 29 34 31 29 36 31 20 21 23 25 27 31 34 35 37 37 39
28 31 32 31 30 27 23 17 12 9 5 4 6 10 13 16 19 22 25 27 28 29 34 38 32 33 35 33 20 24 26 27 31 31 32 35 36 37
24 24 23 22 19 17 14 10 7 4 3 6 9 11 14 17 18 21 25 27 28 29 30 37 39 38 38 35 32 25 26 28 29 30 30 29 30 31
23 23 21 19 15 12 10 8 6 6 7 8 11 13 15 16 19 20 23 25 26 28 31 35 39 39 38 38 38 31 34 25 25 26 27 28 29 30
24 22 20 16 12 10 9 9 7 8 9 11 13 15 15 16 20 22 23 25 26 27 30 33 35 38 36 35 37 36 32 33 27 27 29 26 26 27
24 20 16 13 11 10 9 9 9 10 11 13 14 15 16 16 19 23 26 28 30 29 27 31 36 38 36 33 32 32 33 28 28 25 24 21 18 21
20 16 13 12 12 12 12 11 11 12 13 16 16 16 16 18 19 23 27 30 31 30 30 31 34 35 33 31 29 27 23 25 23 21 21 19 13 17
17 14 13 13 13 13 13 14 15 15 16 18 18 17 17 19 22 23 26 28 29 31 31 33 36 39 39 35 28 26 29 25 25 23 24 24 22 18
17 15 15 15 15 15 15 15 16 17 18 19 19 19 19 20 22 24 26 29 31 31 31 32 35 37 36 36 36 27 26 28 27 25 24 24 22 21
18 17 17 16 16 16 16 16 16 18 19 19 19 19 20 20 22 24 26 29 32 34 33 32 33 34 33 33 33 29 25 26 28 28 25 28 25 19
18 18 17 17 17 16 16 16 17 19 20 21 21 21 21 22 23 25 28 30 32 34 35 33 33 35 34 33 33 32 28 24 25 27 25 24 27 29
19 18 18 17 17 16 16 17 19 21 22 22 23 23 23 23 26 27 29 32 34 35 36 35 36 36 33 32 32 33 31 30 27 26 23 24 26 29

GFSNE_700_spd_063.txt.gz
Wind_Speed
50 52 53 50 47 46 44 46 44 52 49 40 43 44 50 53 50 53 50 52 50 47 51 52 51 52 48 49 51 52 52 51 50 51 52 52 53 53
48 48 48 49 49 50 51 49 52 52 39 49 47 47 49 52 47 46 46 45 42 47 47 49 49 47 50 51 51 53 52 51 52 52 52 53 53 52
46 44 44 45 45 41 41 46 44 35 47 44 46 46 45 50 44 42 40 43 43 43 43 47 49 50 50 48 49 50 51 51 52 52 52 51 49 46
43 45 42 41 39 41 36 40 35 44 46 44 44 46 43 39 41 39 38 40 42 44 47 46 45 47 47 48 49 49 50 50 49 48 46 44 42 41
38 38 39 38 39 33 38 37 40 43 43 45 44 39 40 38 38 40 42 43 43 43 44 45 46 46 48 47 46 45 44 42 40 40 41 42 43 44
32 34 32 33 34 32 41 38 42 42 38 35 37 35 35 38 42 43 42 43 42 42 44 45 44 43 41 39 37 36 36 38 40 43 45 44 43 40
28 26 25 29 33 31 33 34 33 31 32 32 33 36 40 42 44 44 44 44 40 41 40 36 35 32 30 31 33 36 39 42 44 44 43 42 38 34
29 28 24 30 34 32 31 30 27 28 32 35 36 38 41 42 42 40 35 30 24 22 24 20 27 27 30 32 33 36 38 40 41 42 41 37 34 33
26 28 30 30 22 24 25 27 30 32 35 37 39 41 38 34 25 19 18 16 16 21 26 23 28 29 29 28 29 32 35 37 38 38 38 37 36 35
13 12 12 18 23 26 28 31 34 37 39 39 35 28 21 14 10 10 12 16 18 22 29 29 28 28 26 24 26 29 32 34 36 37 38 38 37 36
13 18 20 24 27 30 33 36 39 38 34 28 21 13 10 8 9 11 15 18 19 21 26 29 28 30 23 20 22 24 27 30 32 34 36 38 40 38
20 23 27 30 32 34 35 34 31 29 24 17 12 9 8 10 13 16 17 18 22 22 29 26 27 33 28 18 20 23 25 27 29 31 35 38 39 40
24 25 26 27 28 28 29 27 25 22 16 12 10 9 11 13 15 18 19 20 23 24 30 34 29 31 34 31 21 23 27 27 28 29 34 36 36 36
22 23 23 24 25 25 24 21 18 15 13 12 12 12 14 16 18 19 21 23 24 26 29 34 36 35 36 35 31 24 25 28 28 29 30 30 30 31
24 26 27 26 25 23 21 18 15 13 13 13 14 15 16 18 20 20 21 23 23 25 29 32 36 35 36 37 37 30 32 27 27 28 27 25 26 27
27 27 27 25 23 20 17 14 13 14 14 14 16 17 19 19 20 21 21 24 24 24 27 32 32 35 36 37 38 34 31 34 33 29 29 26 24 25
28 27 25 24 21 18 15 14 14 15 15 16 17 19 20 21 21 22 24 25 26 26 24 28 32 35 36 38 36 31 31 32 31 30 29 25 20 20
28 26 23 21 18 16 16 16 16 16 16 17 18 19 20 21 21 23 25 26 26 27 28 28 30 33 34 35 32 28 29 28 26 26 26 27 20 19
28 25 23 21 19 18 17 17 17 17 17 18 19 20 21 20 21 23 24 25 25 27 28 30 32 36 38 39 35 31 29 27 30 29 28 28 26 20
28 25 22 20 19 18 18 18 18 18 19 19 20 21 22 22 22 23 24 25 27 28 28 30 33 35 38 40 40 31 27 30 30 31 28 28 26 24
28 24 21 19 18 18 19 19 18 19 20 21 22 23 24 25 24 25 26 27 30 31 32 31 32 34 37 38 38 34 28 27 30 33 33 31 30 27
28 23 20 18 18 19 19 18 19 20 21 22 23 25 26 26 27 27 28 30 31 33 35 35 34 35 35 38 39 37 32 25 25 28 28 30 29 30
27 23 19 17 18 18 18 19 20 21 23 24 25 26 26 26 28 29 30 31 33 34 36 37 36 35 36 38 40 39 37 32 30 29 26 26 25 27

GFSNE_700_spd_066.txt.gz
Wind_Speed
48 50 47 47 48 48 48 48 49 52 52 64 45 40 37 38 44 37 36 39 42 43 40 43 44 43 45 49 49 47 44 45 46 48 47 46 45 45
42 42 45 45 43 42 43 44 45 51 51 45 45 35 34 40 39 35 36 40 41 38 39 40 42 43 44 44 43 45 45 47 48 47 46 45 45 45
40 37 39 40 42 41 38 38 41 45 41 36 33 34 38 39 42 41 40 35 36 37 36 36 38 41 43 44 45 44 44 46 46 47 47 47 46 45
43 36 34 35 36 35 40 36 37 37 33 30 33 37 40 38 39 38 34 35 32 35 38 39 40 42 41 42 43 44 45 46 47 46 45 44 43 41
36 44 29 32 32 32 32 35 40 33 31 37 34 40 39 37 33 34 33 34 35 37 38 39 41 40 41 42 42 42 41 41 40 39 37 36 36 37
32 31 25 26 26 29 36 33 34 34 32 33 38 39 33 32 30 33 35 35 36 40 40 39 36 32 29 28 29 29 30 32 33 35 36 37 37 37
26 24 22 26 25 30 32 27 29 34 34 35 32 28 29 31 32 34 36 36 33 31 23 20 18 19 23 26 29 32 34 35 37 37 36 35 34 34
20 19 24 19 27 23 22 31 32 27 27 27 28 30 32 34 36 36 32 23 13 15 10 17 20 21 25 27 29 31 33 35 36 36 35 34 32 30
20 19 18 22 19 20 21 20 21 27 29 31 33 36 37 36 31 25 15 10 11 15 16 14 21 21 23 23 27 29 32 34 35 34 34 33 31 30
10 10 11 12 13 21 25 26 29 31 34 36 36 35 32 28 20 13 11 11 13 16 21 16 20 19 18 19 24 27 30 32 33 34 34 35 34 32
14 16 19 21 25 27 30 31 33 34 33 31 31 28 23 16 12 12 13 13 13 17 23 22 21 22 16 16 21 25 29 31 31 31 32 33 34 36
19 20 21 22 23 25 26 27 27 27 27 25 23 20 15 13 12 13 14 16 17 16 23 21 20 25 22 14 15 20 25 28 30 30 31 33 34 36
21 22 22 23 24 25 25 25 25 24 22 20 17 15 13 13 13 15 17 17 18 19 23 26 21 23 25 26 18 22 26 27 29 28 29 30 31 33
22 23 24 25 26 26 27 26 24 21 19 16 13 13 13 14 16 18 19 19 18 19 22 26 26 27 28 28 27 24 26 28 29 27 27 27 26 26
24 26 27 27 27 26 25 24 21 19 16 14 13 14 16 17 20 21 21 21 19 20 23 27 28 27 29 30 31 28 32 26 27 28 29 26 22 23
28 29 29 29 28 26 23 20 17 15 14 15 16 17 18 20 21 23 22 23 21 20 24 25 28 29 29 29 31 31 33 35 29 26 28 25 24 24
29 29 29 28 26 23 21 18 17 16 16 16 17 18 19 21 22 24 23 23 23 23 21 23 26 28 29 31 30 31 34 34 31 31 30 28 20 23
29 29 28 26 24 21 19 18 17 17 18 18 18 19 20 21 22 23 23 24 24 24 23 24 27 29 30 27 30 30 33 34 32 30 29 30 24 19
30 30 28 26 23 21 19 17 17 17 17 18 19 19 21 22 22 22 24 25 25 25 24 26 28 33 35 33 30 28 33 33 33 31 31 31 28 23
31 30 28 25 22 19 17 17 17 17 17 18 19 20 22 23 24 24 25 26 27 27 27 27 30 33 35 37 35 30 29 34 33 33 32 32 27 24
30 29 27 24 21 18 16 16 16 17 17 18 20 21 23 24 25 25 26 26 28 29 28 29 30 32 35 37 37 35 31 31 34 36 35 35 32 27
30 28 26 23 19 17 17 17 17 18 19 20 21 23 25 26 26 26 26 27 27 29 30 30 30 32 33 36 37 36 34 30 28 31 30 31 36 34
29 28 26 22 19 17 17 18 18 19 21 23 24 25 27 27 27 27 27 28 29 29 31 32 31 32 33 34 35 36 36 35 34 33 27 23 27 29

GFSNE_700_spd_069.txt.gz
Wind_Speed
43 43 43 42 41 40 37 41 40 43 43 41 41 41 44 44 40 34 31 33 32 26 29 36 39 41 40 39 38 39 41 40 40 39 39 39 40 41
45 45 45 43 38 36 36 36 41 42 39 41 40 43 35 36 31 29 27 26 33 35 35 37 35 35 33 32 33 35 37 38 39 40 41 41 41 41
38 39 40 40 37 32 35 35 35 40 44 41 38 33 30 27 24 28 31 31 33 31 30 31 31 29 32 35 36 37 38 40 41 42 41 42 42 41
33 31 33 32 32 36 38 34 34 36 35 36 25 21 24 26 28 27 31 34 28 27 27 29 32 31 34 36 37 38 39 40 41 41 42 42 41 39
29 28 29 29 32 36 37 29 30 31 29 20 20 25 32 30 30 30 28 26 27 29 30 32 32 33 35 33 30 26 25 26 27 28 28 28 29 30
23 23 22 25 23 19 25 27 26 25 28 31 32 31 31 28 27 24 25 27 30 32 34 33 30 23 19 15 19 23 27 30 31 32 32 32 32 32
17 16 18 16 21 19 25 25 25 26 25 28 27 26 25 24 25 27 28 31 34 34 30 22 12 13 15 17 21 24 27 29 30 31 30 31 31 30
11 12 13 18 21 19 26 20 20 26 26 20 20 25 27 28 29 31 32 32 29 23 15 14 11 14 15 18 22 25 27 30 32 31 31 30 30 29
10 10 10 12 14 14 13 13 15 21 24 27 29 31 33 33 34 32 28 24 19 14 12 16 11 14 14 18 21 24 27 30 32 32 32 31 29 27
13 14 15 18 20 22 24 25 26 27 29 29 30 31 30 29 27 25 19 15 15 15 13 12 13 14 14 17 20 24 28 31 31 32 33 33 31 29
16 16 17 18 18 19 20 21 22 23 23 24 25 24 24 22 18 15 13 13 14 17 18 15 16 14 14 16 19 23 28 30 31 33 33 33 32 32
17 18 20 20 21 22 23 24 25 24 24 24 23 22 20 17 14 13 13 13 14 18 22 19 19 20 13 11 16 20 25 30 31 32 33 33 32 32
19 20 21 23 24 24 24 24 24 24 23 22 20 18 16 14 13 14 15 16 17 18 22 22 18 20 19 17 10 16 21 25 28 31 32 31 30 31
20 21 23 24 25 25 25 25 25 23 21 19 17 16 14 13 15 16 17 18 19 19 22 25 22 21 22 19 19 16 21 23 27 28 29 30 29 29
22 23 23 24 25 25 25 24 22 19 17 16 15 14 15 16 18 18 19 20 20 20 22 24 25 24 23 22 22 21 25 21 27 28 28 28 27 27
23 24 25 26 26 26 24 22 20 17 16 16 16 17 17 18 19 20 20 21 20 20 23 24 25 25 23 23 25 24 27 30 28 28 29 27 25 27
25 25 26 26 26 24 22 20 18 17 17 16 16 17 18 19 19 21 22 22 21 19 21 24 25 25 26 26 25 27 29 29 31 29 28 27 20 22
24 26 26 27 26 24 22 20 18 17 17 17 17 17 18 19 19 21 22 22 22 22 22 23 25 26 27 25 29 28 28 30 30 30 32 33 28 22
25 26 27 26 26 24 22 19 18 17 17 17 17 17 18 19 20 21 23 24 24 24 24 25 27 30 31 30 25 26 29 30 31 30 32 34 32 26
26 27 27 27 26 24 22 19 18 18 17 17 17 18 19 20 22 23 24 25 25 24 23 24 27 31 32 33 31 22 24 30 33 33 33 33 33 29
26 27 27 27 26 24 21 20 18 18 18 19 19 19 20 22 23 25 26 26 26 26 25 24 26 30 31 33 33 29 25 26 30 34 34 34 36 32
28 28 29 28 27 25 22 20 19 20 20 21 21 22 23 23 24 26 27 26 26 27 27 26 26 28 29 32 33 32 28 27 28 31 32 34 37 38
28 29 29 28 28 26 24 22 22 22 23 23 24 25 26 25 26 27 27 27 28 29 29 29 28 29 30 31 33 33 32 31 30 30 30 29 31 35

GFSNE_700_spd_072.txt.gz
Wind_Speed
39 41 43 45 46 46 44 38 37 38 37 39 37 42 43 40 39 39 31 31 30 34 31 31 31 31 31 32 39 41 38 36 36 35 35 35 34 34
37 38 38 39 42 44 44 43 37 34 35 39 40 35 41 43 39 30 27 27 24 26 27 29 32 33 35 35 31 31 31 32 34 35 36 37 37 36
36 37 36 35 34 33 33 34 34 34 38 39 41 36 33 36 29 21 21 25 25 27 30 31 32 31 33 29 29 32 33 34 35 36 37 38 39 39
36 34 32 28 27 27 29 32 33 34 36 39 35 30 30 27 22 18 23 26 24 30 32 30 29 27 28 31 33 34 35 35 33 30 27 26 26 28
27 24 25 23 24 25 27 29 28 22 26 27 32 30 17 23 23 22 26 27 26 26 27 26 28 28 30 33 33 30 24 19 20 23 24 26 27 29
17 19 19 18 17 19 19 19 20 24 27 27 30 21 23 25 24 25 24 22 23 27 27 28 30 31 31 27 19 16 17 20 22 22 23 24 25 27
13 12 8 10 11 11 15 18 22 26 23 22 24 25 28 21 20 22 24 25 28 31 31 32 30 27 21 17 17 18 20 21 21 21 23 24 25 27
14 12 10 11 11 12 12 13 14 14 12 16 21 21 23 24 25 26 29 31 32 32 29 29 21 18 16 18 19 19 20 21 22 23 23 23 25 27
12 12 12 14 16 17 17 19 22 23 24 26 28 30 31 31 31 31 31 29 28 26 20 19 16 17 18 19 19 20 21 23 24 25 25 25 25 26
11 13 14 15 15 16 17 19 20 21 22 23 24 25 25 26 26 26 26 24 22 18 15 17 16 18 18 19 20 21 24 25 27 28 27 28 28 28
13 14 15 17 18 19 20 21 21 22 22 22 23 23 23 22 21 21 20 19 17 17 16 17 17 17 18 20 21 23 26 28 29 29 30 31 31 31
15 17 18 20 20 21 22 23 24 24 24 24 23 22 21 20 19 17 16 15 16 17 18 17 17 18 17 19 20 23 27 28 29 31 32 32 32 32
17 19 21 22 22 23 23 24 24 25 24 23 21 19 18 16 15 14 14 15 17 19 21 19 19 21 20 18 18 22 26 27 29 31 33 31 31 32
18 20 21 22 23 23 24 24 25 25 22 20 18 17 16 16 15 14 15 16 18 19 21 23 22 23 23 20 16 19 23 24 27 30 31 30 31 31
19 21 22 22 23 24 24 25 24 23 21 20 18 17 17 17 17 17 18 18 19 21 22 24 23 23 23 22 20 19 22 20 25 29 30 28 29 29
20 21 22 22 23 24 24 24 23 22 21 19 18 17 17 17 18 18 19 20 20 21 24 24 23 23 23 23 23 21 24 24 26 29 30 26 27 27
22 22 22 23 23 24 24 24 24 23 21 19 19 18 17 17 18 18 19 19 19 20 22 25 25 25 25 25 24 26 26 27 30 30 31 28 25 25
22 22 23 24 24 25 25 25 24 23 21 21 20 19 19 19 19 20 21 21 20 22 22 24 26 27 28 26 28 28 28 30 31 30 31 31 27 24
23 24 25 26 26 26 26 26 25 24 23 22 22 21 21 21 21 22 23 23 23 23 23 24 26 29 29 26 23 26 29 29 30 30 30 31 31 29
25 26 27 27 28 28 27 27 26 25 24 23 23 23 23 23 23 24 25 25 25 24 23 24 27 29 30 30 26 17 26 28 30 31 30 30 32 34
27 27 28 29 29 29 29 28 27 26 26 25 25 25 25 25 25 27 28 28 28 27 24 23 27 30 30 31 30 25 20 25 28 33 32 34 35 34
29 29 30 30 30 29 29 28 27 27 27 27 27 28 28 29 29 29 30 31 30 30 28 26 27 29 31 33 33 32 26 24 25 28 31 35 36 38
30 31 32 32 31 31 30 28 27 26 27 29 29 30 30 31 32 33 33 33 34 33 33 31 30 31 31 33 34 33 32 29 29 29 29 30 30 34

GFSNE_700_spd_075.txt.gz
Wind_Speed
35 36 37 38 39 40 40 40 40 43 42 40 36 32 32 36 37 35 32 29 35 38 32 35 28 30 29 30 30 27 30 32 36 39 35 33 31 31
31 32 34 34 36 36 34 34 34 34 36 36 35 32 33 35 38 32 31 20 25 29 26 23 24 26 30 28 30 32 34 35 33 32 31 31 33 33
31 31 31 33 34 30 27 29 31 30 30 33 33 35 35 37 32 32 30 20 13 18 24 25 27 28 28 30 33 33 33 31 30 32 33 33 34 35
29 30 31 30 25 23 24 27 29 27 29 30 30 29 25 26 30 22 18 16 19 20 25 25 26 29 31 31 31 32 32 32 32 34 35 32 27 22
24 26 22 20 21 21 22 26 27 25 26 25 23 20 22 25 20 21 21 20 22 23 27 27 28 29 28 29 31 34 34 35 34 30 23 21 22 22
19 18 18 16 15 17 18 19 17 17 20 23 20 17 19 22 25 27 21 22 21 21 24 28 30 31 31 32 34 35 34 28 22 21 21 21 21 21
9 8 7 8 8 8 11 12 13 15 15 15 15 16 18 20 20 21 23 25 25 26 29 32 32 33 35 34 33 28 22 21 21 21 21 20 19 19
6 7 7 9 12 13 15 16 18 20 21 22 23 25 25 26 28 29 30 31 31 33 33 33 32 32 29 25 20 19 21 22 21 21 20 20 20 20
8 9 11 12 13 15 16 18 20 21 22 23 23 23 24 24 24 25 26 27 28 29 28 29 26 26 21 18 18 20 22 22 22 23 22 21 21 20
9 11 12 13 15 17 19 21 22 23 23 23 23 23 23 24 23 23 23 23 24 22 21 21 18 18 17 18 20 21 23 24 25 25 25 23 22 21
13 14 16 17 18 19 21 23 24 24 25 25 26 26 26 24 23 21 20 20 21 18 16 15 15 17 18 19 21 23 25 27 27 27 26 25 23 23
16 17 19 20 21 21 22 23 24 24 25 25 25 24 23 21 20 19 18 18 18 16 14 14 17 18 20 21 23 24 26 29 29 28 28 27 27 27
18 19 20 21 22 22 22 23 24 25 26 25 24 23 21 20 18 17 16 15 15 16 17 16 18 20 22 21 22 24 27 30 31 31 31 30 30 31
19 19 20 21 22 22 23 23 24 25 25 25 24 23 21 19 18 17 16 16 16 16 19 20 20 22 23 22 20 23 28 31 32 31 32 32 31 32
19 20 21 22 22 23 23 24 24 25 25 25 24 23 21 21 19 18 18 18 18 19 20 21 22 22 23 22 21 21 25 26 28 29 31 31 31 32
20 21 22 22 23 24 24 25 25 25 26 26 25 24 22 21 21 20 19 20 20 21 22 23 23 23 22 23 24 20 24 25 24 28 31 30 30 30
21 22 23 24 24 25 25 26 26 26 26 26 25 24 23 23 22 22 22 21 21 22 23 25 26 26 25 25 25 24 26 25 27 29 31 31 28 28
22 23 23 24 25 25 26 27 28 28 28 27 26 25 25 24 24 24 24 24 23 24 24 27 28 29 30 26 26 25 25 27 28 30 31 34 30 26
24 24 25 26 26 27 27 28 29 29 28 27 27 27 26 25 25 25 27 26 26 26 26 28 30 33 32 29 25 27 26 27 30 30 31 32 32 27
25 26 27 28 28 29 30 30 30 30 30 29 28 27 27 26 25 27 29 29 29 28 27 29 32 34 34 32 28 22 26 28 30 30 30 32 32 30
27 27 29 30 31 32 32 32 31 31 31 29 28 28 28 28 28 29 31 32 33 32 31 29 31 34 34 34 32 26 24 30 31 31 31 33 33 32
29 29 31 33 35 34 34 33 31 32 31 31 30 30 29 30 31 32 33 34 35 36 35 33 32 34 35 36 35 33 28 26 30 31 31 35 37 37
31 32 34 39 38 35 34 32 31 31 31 32 31 30 31 31 32 33 34 35 36 36 36 36 35 35 36 37 38 36 34 31 30 31 28 32 34 37

GFSNE_700_spd_078.txt.gz
Wind_Speed
32 32 31 32 32 33 34 35 36 37 35 31 28 27 28 27 26 28 33 30 26 28 32 30 32 29 29 29 29 27 26 24 23 24 23 25 29 30
28 28 29 30 32 33 33 33 33 30 31 30 29 27 30 28 26 27 30 25 28 29 25 25 20 20 20 25 28 27 26 25 25 27 28 28 28 27
25 25 27 29 31 30 31 28 25 26 29 29 29 28 28 27 21 19 19 20 18 21 19 17 19 20 19 23 27 27 26 28 28 28 29 28 28 30
22 23 24 25 25 23 21 21 22 24 27 26 26 28 27 25 21 18 11 17 15 17 21 20 20 21 20 23 25 27 28 28 27 28 30 32 32 33
19 21 21 20 18 17 17 18 17 20 17 19 21 23 23 24 19 17 18 20 18 18 20 22 21 21 22 24 25 26 27 30 31 33 32 33 33 28
18 16 16 13 11 12 13 13 14 13 13 15 16 17 16 19 17 18 17 17 17 18 20 21 22 23 25 28 30 32 33 35 36 36 33 26 22 20
5 4 5 6 7 9 11 13 14 15 16 17 19 19 21 22 22 23 24 24 24 25 26 26 27 29 31 32 33 35 37 36 33 26 20 20 20 21
4 4 6 8 10 12 13 15 17 18 19 20 20 21 21 22 22 22 22 23 26 25 27 28 28 29 30 30 30 30 29 23 18 18 19 20 20 20
6 8 10 12 13 15 17 18 19 20 21 22 22 22 23 23 23 23 23 23 23 23 23 24 24 25 25 23 21 18 17 17 18 19 19 20 21 21
9 11 12 15 17 18 20 21 22 23 23 23 23 24 24 24 24 24 23 22 21 20 20 20 19 18 16 14 14 15 17 19 20 21 22 23 22 22
12 13 15 17 19 21 22 23 23 23 22 23 24 24 24 24 25 24 22 20 19 18 18 16 16 14 12 13 15 17 19 21 23 24 24 23 22 22
14 15 17 18 19 20 22 22 22 22 22 23 23 23 23 23 22 22 21 20 19 18 17 13 13 14 14 15 17 19 21 23 25 26 25 24 24 23
16 17 17 19 20 21 22 22 22 22 23 23 24 24 25 25 24 23 22 21 21 20 17 14 13 16 17 18 19 21 22 25 26 28 27 27 27 26
17 17 18 20 21 22 22 22 22 23 23 23 24 25 26 26 25 24 23 22 20 19 20 18 15 18 19 20 19 21 26 27 28 29 29 30 29 29
18 18 19 20 20 21 22 23 23 23 23 24 24 25 25 25 25 24 23 22 21 21 21 21 20 20 21 21 21 21 23 25 29 30 31 32 31 31
19 19 20 20 21 22 23 23 24 24 25 25 26 26 26 26 25 25 23 23 21 22 24 24 23 23 23 24 23 20 24 26 27 29 32 31 31 31
20 20 20 21 22 23 24 25 26 27 27 27 28 28 28 27 26 25 24 23 22 23 25 28 27 25 26 26 25 25 25 27 27 29 33 32 29 29
22 22 22 22 24 25 26 27 29 29 29 29 28 29 28 28 27 26 26 25 23 24 25 28 30 30 29 27 30 27 27 26 27 30 32 33 27 25
23 24 24 24 26 27 28 29 32 32 31 30 29 29 29 28 27 27 27 27 26 26 26 29 31 35 34 31 27 30 29 28 30 31 31 32 31 24
24 25 26 26 27 28 29 32 34 32 31 30 30 30 30 29 28 27 29 29 29 28 27 29 33 37 37 37 32 25 30 31 31 31 31 32 32 29
26 26 27 28 28 29 32 35 34 32 32 30 30 30 30 30 29 29 29 31 32 32 30 29 32 37 38 39 37 31 28 32 33 32 31 33 32 31
28 27 28 29 30 32 35 34 33 32 31 30 30 30 31 31 31 31 31 31 31 33 33 31 31 34 36 38 39 37 32 30 33 34 32 34 36 35
29 29 29 30 32 34 35 33 31 30 32 31 31 31 32 33 32 32 32 32 32 32 33 32 32 32 32 34 36 35 31 29 30 33 30 31 33 35

GFSNE_700_spd_084.txt.gz
Wind_Speed
35 35 35 33 31 30 29 29 29 31 30 25 25 21 21 20 20 19 19 19 19 21 21 23 26 29 25 32 33 33 37 35 26 31 30 29 34 32
34 32 30 27 26 26 25 26 26 27 27 22 18 18 18 16 15 17 16 17 19 19 18 21 23 25 28 28 26 25 26 23 20 23 25 27 26 24
27 24 22 23 23 22 22 23 22 20 18 17 14 13 14 12 13 13 15 16 16 17 18 18 20 20 20 20 23 25 23 21 19 20 21 22 22 21
22 21 21 20 20 20 20 18 16 14 13 12 13 11 12 11 11 12 13 11 11 12 13 15 17 20 22 25 25 25 22 23 23 23 23 23 20 20
22 21 19 18 18 16 13 10 9 7 7 8 9 11 12 12 14 15 16 16 16 16 18 19 18 18 19 21 21 21 22 24 24 24 23 23 23 23
20 18 17 15 10 5 5 7 8 9 10 11 13 14 14 15 17 17 18 19 20 20 20 20 21 22 23 24 25 25 26 27 28 27 27 28 28 27
16 15 11 7 6 6 7 9 10 12 13 15 15 16 17 18 19 19 19 20 20 22 23 24 24 24 23 23 23 24 25 26 26 27 27 27 25 25
13 12 10 7 7 8 9 11 13 14 16 17 18 18 18 19 19 20 20 20 21 23 23 23 24 23 23 23 23 23 25 25 23 22 21 20 18 17
12 10 9 8 8 9 11 13 15 16 16 17 17 17 18 18 18 18 18 18 19 20 21 21 21 21 22 22 23 23 24 23 22 19 15 13 14 15
11 10 9 9 10 12 13 15 15 16 16 17 17 17 18 18 18 18 18 18 19 19 20 20 20 21 22 22 22 21 20 19 18 17 16 16 17 17
11 10 10 11 12 13 14 15 16 17 17 17 16 16 17 17 17 17 18 18 19 19 20 21 22 21 21 21 21 20 19 19 19 19 19 19 19 20
11 11 11 12 13 14 15 16 17 17 16 16 16 16 16 17 17 18 19 19 20 20 21 21 22 22 22 21 21 21 21 21 21 22 21 21 21 22
13 12 12 13 14 14 15 16 17 17 17 17 17 17 17 18 18 19 20 21 22 23 21 22 23 23 23 22 21 22 22 23 24 24 23 24 24 25
13 13 13 14 14 15 16 17 17 17 17 17 18 18 18 19 20 21 21 22 23 24 25 24 23 24 23 23 22 24 26 26 26 25 25 25 26 26
14 14 15 15 16 16 17 18 18 18 18 18 19 20 21 21 21 22 22 23 24 26 26 26 25 25 24 23 23 24 27 28 30 28 27 27 26 26
16 16 17 18 18 18 19 19 19 20 20 21 21 23 24 23 23 22 23 23 24 26 27 27 26 26 26 25 24 24 28 28 30 32 31 29 29 30
18 19 20 20 20 21 21 21 21 22 22 23 24 26 26 25 24 24 24 24 25 26 28 29 28 27 27 27 25 26 28 29 32 33 33 32 30 30
21 22 22 22 22 23 24 24 24 24 24 25 27 28 27 26 25 25 26 26 26 27 27 29 30 31 31 28 27 27 28 30 33 35 35 35 30 30
23 24 24 24 24 25 26 27 26 26 26 27 28 29 27 25 25 26 27 28 28 27 27 28 30 32 32 31 28 25 29 31 35 35 37 38 36 30
25 26 26 27 27 26 30 29 29 28 28 29 29 29 27 25 25 27 28 29 29 28 28 29 31 33 33 33 30 24 28 30 33 34 33 36 35 33
27 28 29 29 28 28 32 31 30 30 29 30 29 27 27 26 26 28 29 29 30 29 28 29 31 32 33 34 33 28 27 29 29 32 32 33 32 31
30 30 31 31 32 32 33 33 32 32 33 32 29 27 27 27 27 28 29 30 30 30 29 30 30 31 32 35 33 31 26 27 27 26 27 30 30 27
33 34 34 35 36 39 37 35 35 39 38 32 27 26 27 28 29 30 30 31 31 31 31 30 30 31 32 34 33 30 28 26 26 25 25 26 28 28

GFSNE_700_spd_087.txt.gz
Wind_Speed
35 35 35 35 34 32 32 30 29 28 28 25 25 24 21 20 21 22 21 20 22 20 19 18 19 18 20 24 26 23 31 31 36 39 37 24 24 26
34 34 33 31 29 28 26 24 24 25 27 24 20 17 16 16 17 18 17 17 19 18 17 17 17 18 18 19 24 29 35 34 28 25 22 20 22 26
31 30 27 26 24 22 23 22 21 22 21 17 15 12 12 11 10 11 10 12 12 12 13 14 17 18 19 20 20 23 25 27 29 26 21 20 22 24
28 26 23 22 21 20 20 19 19 17 13 11 10 11 10 11 11 12 14 14 14 15 15 17 18 19 18 16 18 22 23 21 22 22 23 20 20 22
25 23 22 21 20 18 18 15 11 7 5 6 8 10 11 13 14 16 17 18 17 18 18 18 19 19 20 20 21 22 24 26 26 24 24 24 23 23
23 22 20 19 17 16 10 7 8 8 8 9 11 13 15 16 18 19 20 20 20 20 20 21 21 21 21 21 22 23 24 25 25 26 27 27 27 27
20 20 18 16 13 11 9 9 9 10 11 12 15 16 17 18 20 20 20 20 20 21 21 21 22 22 21 22 22 22 22 22 23 23 25 27 28 28
18 17 15 13 12 10 10 10 11 12 14 15 16 17 17 18 19 19 19 20 19 20 19 20 20 20 20 20 21 21 22 24 25 26 26 25 24 25
17 15 14 13 12 11 11 12 13 14 15 15 16 17 17 17 17 17 17 17 18 18 18 18 18 18 19 19 20 21 23 25 26 26 25 24 22 20
16 15 15 14 12 12 12 13 14 14 15 16 17 18 18 17 17 17 17 17 17 17 18 18 18 18 19 19 20 21 22 24 24 24 24 22 20 19
16 16 14 13 13 14 14 14 14 14 16 17 17 18 18 17 17 17 17 17 18 18 19 19 19 19 19 20 21 22 22 23 24 24 24 23 23 22
16 15 14 14 14 14 14 14 14 15 16 16 16 17 18 18 18 18 18 19 20 19 20 20 21 21 21 21 22 23 23 24 25 24 24 25 25 25
15 15 15 16 15 15 15 15 15 15 16 16 16 17 17 18 18 19 20 21 21 21 20 21 22 24 24 23 23 24 24 25 25 26 26 26 26 27
16 16 17 16 16 15 16 16 16 16 17 17 18 18 19 19 20 21 22 22 22 23 22 22 23 25 26 25 24 25 27 26 26 27 26 26 27 28
17 18 18 17 17 17 17 17 18 18 18 19 20 20 21 21 22 24 24 23 23 24 24 25 25 26 26 26 25 25 27 27 29 30 29 28 27 28
20 19 19 20 19 19 18 19 19 20 20 21 22 23 23 24 26 26 26 25 24 25 26 27 27 27 27 27 26 24 27 27 28 31 32 31 30 30
21 21 21 22 21 20 20 21 22 22 23 23 25 25 25 27 27 27 26 26 25 26 27 28 28 28 28 28 26 26 27 28 29 31 33 33 32 32
22 23 23 23 23 23 22 23 24 24 25 26 27 27 28 28 29 27 26 26 25 26 28 29 29 29 29 26 27 26 28 30 31 33 34 34 31 32
23 24 25 26 26 25 25 26 26 25 27 28 28 29 30 30 29 27 26 26 27 27 28 29 30 31 31 29 26 25 27 31 32 32 33 34 34 29
25 26 27 28 28 28 28 29 29 28 29 31 31 31 32 32 29 27 27 27 27 28 29 30 31 31 32 32 29 25 29 29 32 32 32 33 32 29
27 28 28 29 30 30 30 31 31 30 33 34 33 36 37 34 31 28 27 27 28 28 28 30 32 32 32 32 30 26 27 30 31 31 30 31 28 26
28 28 29 31 33 32 32 34 34 35 36 40 37 39 37 32 30 28 27 27 28 29 29 29 31 33 33 33 32 30 27 28 30 29 28 29 28 24
35 38 38 36 37 37 39 38 39 39 40 39 37 39 33 30 30 27 27 28 29 30 30 30 31 33 32 33 34 32 30 28 28 27 25 27 27 26

GFSNE_700_spd_090.txt.gz
Wind_Speed
33 33 33 33 33 33 33 33 33 32 28 25 24 21 22 20 19 18 18 17 16 17 16 15 17 15 14 13 14 21 25 27 25 28 30 34 26 27
33 33 32 32 32 31 29 28 26 25 25 22 21 20 17 16 14 15 14 13 11 12 12 13 13 14 13 13 15 17 17 22 24 31 34 28 23 22
33 33 31 31 29 27 25 23 22 22 22 21 19 16 13 11 10 10 11 11 12 12 13 13 14 14 14 13 13 15 17 22 24 23 20 19 18 19
32 32 30 28 25 23 22 21 20 20 20 16 14 11 9 8 9 11 13 14 15 15 14 15 16 16 16 16 16 16 15 16 17 20 20 18 16 17
30 29 26 26 23 22 20 20 19 17 12 9 8 9 9 10 12 14 15 16 17 18 18 18 18 17 17 17 17 18 18 19 19 20 21 20 19 20
28 26 25 23 22 20 18 17 13 10 9 9 10 10 11 12 15 16 16 17 18 18 18 19 19 18 18 17 17 18 18 18 18 19 20 20 21 21
24 23 22 20 18 16 15 13 12 11 10 11 12 12 13 15 16 16 16 16 18 18 18 18 18 17 17 17 17 18 17 17 16 17 18 20 21 22
23 21 20 18 17 15 15 14 12 11 12 12 13 13 14 14 15 16 17 16 16 17 16 16 16 16 16 17 17 18 18 18 19 20 21 21 21 21
20 19 17 16 15 15 14 12 12 12 13 13 14 13 14 15 16 17 17 17 15 15 15 15 15 15 16 17 18 19 19 20 20 21 22 22 22 23
18 17 17 17 16 14 14 12 13 14 14 14 14 14 15 16 17 17 17 17 16 15 15 15 16 16 16 17 18 19 19 20 21 21 21 22 22 22
16 16 17 16 15 14 14 13 14 14 14 14 14 14 15 16 17 17 17 17 16 17 17 17 17 17 17 18 18 20 20 21 21 22 22 22 22 22
17 17 17 16 15 15 14 14 14 14 13 14 14 14 15 15 16 17 18 18 18 18 20 19 19 19 18 20 20 21 21 22 22 22 23 23 23 23
18 18 17 16 16 15 15 14 14 14 14 14 14 14 16 16 17 18 18 19 20 20 20 20 20 21 21 21 23 22 22 23 22 23 23 24 24 24
17 17 17 17 16 16 16 15 15 16 15 14 14 16 17 17 18 20 21 21 22 23 21 21 21 21 22 22 23 23 24 24 23 23 24 25 25 25
18 18 18 18 18 17 17 17 17 17 16 16 16 17 18 19 20 22 23 24 24 24 23 22 22 23 24 24 22 24 25 26 26 25 26 26 26 26
20 19 19 19 18 19 19 19 19 19 19 19 19 19 20 21 22 24 25 26 25 25 24 23 23 24 25 25 24 24 26 24 26 27 28 28 28 27
20 20 20 20 20 20 21 21 22 21 22 22 21 21 21 22 24 26 27 27 25 24 24 24 25 26 26 26 25 27 26 26 27 28 29 29 28 29
21 21 22 22 22 22 23 22 23 24 25 24 23 23 23 24 26 28 28 28 26 25 23 24 26 27 27 25 27 25 26 28 29 29 31 31 26 28
22 23 23 23 23 25 24 25 25 26 27 26 27 26 26 29 29 30 31 29 27 25 25 25 26 27 27 25 23 27 26 29 30 29 31 33 32 25
23 24 24 26 26 26 27 27 27 27 27 28 29 29 32 35 32 36 33 30 27 26 25 26 28 28 28 28 23 23 29 29 30 30 30 33 32 29
26 26 27 28 28 29 28 28 28 29 30 29 30 34 36 34 36 36 31 28 25 25 24 26 29 30 29 29 26 23 26 31 33 33 31 32 29 27
29 29 29 30 31 31 31 32 32 32 33 34 35 34 36 37 36 34 30 27 26 26 26 26 29 31 30 31 29 27 25 27 32 34 32 31 30 26
28 29 31 34 37 38 37 37 37 37 38 37 37 37 36 36 36 33 30 28 27 28 29 29 30 31 31 31 31 29 28 28 30 30 30 32 30 27

GFSNE_700_spd_096.txt.gz
Wind_Speed
38 38 38 36 34 34 34 34 34 36 37 35 35 30 26 24 23 22 19 17 16 14 12 11 9 10 11 10 8 8 15 16 24 20 26 29 26 22
36 36 36 35 34 34 34 34 34 34 36 35 31 28 22 22 22 20 17 13 11 8 7 8 7 7 8 8 9 9 12 18 23 30 32 24 21 21
36 35 35 34 34 33 33 33 33 32 32 32 28 23 22 22 21 17 14 11 10 9 9 11 10 9 8 10 10 11 12 13 16 18 21 19 18 17
36 35 35 34 34 34 33 33 31 30 29 28 24 22 21 20 17 15 12 11 11 12 12 12 13 12 11 12 13 13 13 13 13 15 16 18 19 19
37 35 34 33 32 31 31 30 29 28 26 24 23 21 20 16 14 12 12 13 13 14 14 14 13 13 13 14 14 14 14 14 15 15 16 17 17 17
35 34 33 31 30 30 29 28 27 25 24 23 22 19 15 14 12 13 13 14 14 15 14 13 12 12 13 13 13 13 13 14 15 15 16 16 16 15
33 32 31 29 28 28 27 25 24 23 22 21 18 15 13 13 14 13 14 15 14 14 13 12 12 11 11 11 12 12 12 12 13 14 15 15 15 15
31 30 29 28 26 25 24 23 22 20 19 17 15 14 14 13 14 14 13 14 13 13 13 12 12 11 11 11 11 11 11 11 12 13 14 15 16 16
29 28 27 26 25 24 23 22 20 18 18 17 16 14 14 13 14 13 13 15 14 13 12 12 11 12 12 12 13 13 12 12 13 14 15 16 17 17
26 25 24 24 23 21 21 19 18 18 17 15 15 14 14 13 14 14 14 14 13 12 13 13 12 13 14 15 15 14 13 13 15 16 18 19 20 19
24 22 21 20 19 19 18 18 17 16 16 14 15 14 14 14 14 14 14 13 13 13 14 14 14 15 16 17 16 16 15 16 16 18 20 21 21 20
21 19 18 17 16 16 17 18 16 16 15 14 15 15 14 14 14 14 13 12 13 14 14 15 16 16 17 18 18 18 17 18 18 18 20 20 20 20
19 17 16 14 14 15 17 18 16 16 15 17 16 15 15 15 14 13 13 13 13 13 15 16 17 18 19 20 20 20 20 19 20 21 22 22 23 23
17 16 16 15 15 16 17 17 14 19 18 17 16 15 16 15 14 14 15 15 15 16 17 18 18 19 21 22 21 21 22 21 22 23 23 23 24 25
18 18 15 14 17 18 14 16 22 20 19 18 17 17 17 16 16 17 18 18 18 18 19 19 19 20 21 22 22 23 23 23 23 25 24 23 25 25
22 22 16 15 17 18 21 22 21 20 19 19 19 19 19 18 19 20 20 20 20 20 21 21 22 21 21 22 21 24 24 24 26 26 24 24 25 25
18 8 15 18 18 22 22 22 21 21 21 22 21 21 21 21 22 22 23 22 22 22 23 25 26 24 22 22 21 22 23 25 26 26 24 24 26 26
16 12 15 19 23 23 23 23 23 23 24 24 23 23 24 24 24 24 25 25 24 25 28 30 26 25 23 22 22 23 23 25 26 26 25 23 24 28
16 20 22 23 24 24 25 25 24 25 26 25 25 26 26 27 26 27 26 26 26 31 33 28 28 26 23 22 24 23 24 25 26 25 26 25 21 25
19 21 23 24 25 25 26 26 27 28 27 27 28 28 29 29 29 28 27 29 32 32 34 28 30 27 24 23 23 23 26 25 26 26 28 28 27 24
23 23 25 26 27 28 28 29 29 29 30 29 29 30 31 32 31 30 34 37 33 35 29 31 34 29 27 25 23 23 27 28 29 29 29 28 28 26
29 33 35 35 35 35 34 33 33 34 33 34 33 33 33 37 40 41 40 36 36 33 31 34 35 32 28 28 26 25 26 29 31 32 32 32 31 28
27 26 27 28 28 31 34 34 35 37 39 40 40 40 40 39 37 36 37 35 35 35 33 33 33 33 29 29 29 28 29 30 31 32 32 35 34 31

GFSNE_700_spd_099.txt.gz
Wind_Speed
35 38 39 40 38 38 37 36 36 38 38 37 34 34 30 33 29 25 22 21 19 16 15 12 11 9 9 8 9 11 13 16 17 21 17 24 21 27
32 33 38 38 38 38 36 36 36 36 39 39 36 34 35 29 27 24 21 20 17 13 10 8 7 7 6 7 9 11 14 20 23 18 21 21 28 31
36 38 40 39 39 38 37 36 36 36 37 38 36 33 29 28 24 22 20 18 15 11 10 9 9 9 9 8 9 11 13 17 23 27 29 30 33 31
39 43 41 39 38 38 36 36 37 35 35 34 33 29 27 23 22 21 19 16 14 12 11 11 12 12 12 12 12 13 13 14 16 17 19 21 21 21
38 37 38 36 36 35 35 35 34 33 33 32 30 27 24 22 20 18 16 14 13 12 13 12 14 14 14 15 15 14 15 15 16 16 16 17 18 18
36 36 35 35 34 33 33 33 33 30 29 28 27 25 22 20 17 15 14 13 13 13 14 14 14 15 15 15 16 15 15 16 16 16 16 16 17 17
34 33 33 32 31 31 31 31 29 28 26 25 24 22 19 16 15 14 13 14 14 14 13 13 14 14 15 15 14 14 14 14 14 14 14 15 15 16
32 32 31 30 30 30 29 27 26 24 24 23 21 18 17 16 15 14 13 14 14 14 13 14 14 14 14 14 13 13 13 13 13 13 14 14 15 15
31 31 31 30 29 27 26 25 23 23 22 21 19 18 17 15 14 14 15 14 14 14 14 14 13 14 13 13 12 13 12 13 14 13 14 14 15 16
31 31 30 28 27 25 23 23 21 20 18 19 17 18 16 15 14 15 15 14 14 14 14 14 13 14 14 13 14 14 13 14 14 14 14 15 16 18
30 29 28 25 23 22 20 19 18 18 18 18 17 17 14 15 15 15 14 13 13 13 14 14 14 15 14 15 16 15 15 16 16 16 16 16 17 18
27 25 23 22 20 19 18 17 17 17 16 15 16 15 14 16 15 14 13 14 13 14 14 13 14 15 15 17 17 17 17 18 18 18 18 18 18 19
25 23 21 19 18 16 15 15 15 16 14 13 16 16 15 16 15 14 14 14 13 13 14 14 15 15 17 18 19 19 19 20 20 20 20 19 20 21
23 21 19 17 16 15 13 14 15 17 20 18 15 16 18 18 16 16 16 15 15 15 16 16 17 18 18 18 20 21 21 21 21 21 21 21 21 23
20 20 18 19 20 15 16 17 17 17 14 13 21 23 20 18 18 19 18 18 17 19 19 19 19 20 20 21 22 23 22 22 21 22 21 22 23 23
20 19 20 21 16 14 18 21 19 14 15 22 23 21 20 21 21 21 21 20 21 21 20 21 21 21 21 24 24 26 24 23 22 22 22 24 24 24
18 19 19 18 17 19 23 21 16 18 24 26 24 24 23 23 23 24 24 23 22 23 22 23 24 24 27 27 24 26 26 24 24 23 23 23 24 24
15 14 16 9 16 18 20 21 23 25 26 26 26 25 25 26 26 26 25 25 25 25 25 26 27 28 29 25 25 26 26 27 26 25 24 21 23 25
11 13 13 16 20 23 25 27 27 28 28 27 27 27 28 29 29 28 27 27 27 28 28 28 29 34 30 24 26 25 27 28 28 26 24 21 20 25
16 19 22 24 25 26 27 27 28 29 29 29 30 30 30 31 30 29 29 30 30 30 30 30 34 36 32 27 25 24 28 30 29 27 26 24 22 23
22 23 24 26 27 29 29 29 30 31 32 31 30 30 31 32 31 31 31 31 33 33 32 38 36 39 31 30 26 25 31 30 30 30 29 27 26 24
24 23 27 31 34 35 36 35 35 35 34 34 33 33 33 35 38 37 35 35 36 39 43 41 40 38 33 31 29 28 29 32 34 32 31 31 31 28
27 28 28 28 28 29 28 30 34 37 39 39 40 42 43 42 42 41 42 42 43 43 40 39 41 39 35 33 31 29 29 31 34 34 32 36 35 32

GFSNE_700_spd_102.txt.gz
Wind_Speed
32 33 34 36 35 32 32 36 40 40 40 38 37 33 31 36 31 31 29 27 23 20 19 16 15 12 9 10 11 11 13 15 17 18 19 17 20 18
31 34 36 37 42 39 35 37 41 39 39 40 36 35 35 33 32 33 28 23 21 18 16 14 11 9 7 8 9 11 12 14 16 18 17 18 22 21
36 39 43 47 43 39 38 40 40 37 38 39 37 37 32 30 29 27 24 22 20 17 15 13 11 10 8 7 8 11 13 13 13 21 24 22 21 22
41 34 34 36 35 36 36 37 37 37 36 35 36 34 31 29 25 23 21 21 18 16 15 13 13 12 10 10 11 13 14 16 22 28 27 28 26 29
33 33 33 34 35 35 34 34 33 33 33 33 32 31 28 25 23 22 21 19 16 16 15 15 14 14 13 13 14 13 14 16 18 20 20 21 22 22
31 32 34 34 33 34 33 32 32 31 31 30 29 27 26 23 21 20 19 16 15 15 15 15 15 15 14 15 14 14 15 17 17 18 18 19 19 18
31 32 34 33 32 32 31 30 29 29 28 28 25 24 23 21 20 19 16 15 14 15 14 15 15 14 14 15 14 14 15 15 16 16 16 16 16 15
28 30 31 31 31 30 30 28 28 27 26 24 22 21 21 20 18 16 16 16 15 15 15 15 15 14 14 14 13 14 15 14 14 15 15 15 14 14
29 30 29 29 29 29 28 27 26 25 23 22 21 21 18 17 17 16 16 16 15 15 15 14 15 15 14 13 13 14 14 14 14 15 15 15 14 14
29 29 29 30 29 27 26 25 23 22 22 21 21 19 18 16 17 16 16 15 15 14 14 14 15 14 14 13 14 14 14 15 15 16 16 16 15 15
28 28 27 27 27 26 24 22 21 19 19 19 18 17 17 17 15 15 15 14 13 13 14 14 14 14 13 14 15 15 15 16 16 17 17 17 17 16
27 28 26 25 24 22 21 19 18 17 16 15 15 15 15 14 13 13 13 13 13 14 13 12 13 13 13 14 15 15 16 17 18 19 19 19 19 18
27 27 24 23 21 19 18 16 15 14 14 14 15 14 14 15 12 12 12 15 14 14 12 12 13 13 13 14 15 16 17 18 19 21 21 21 20 20
26 26 24 20 19 18 17 15 13 13 14 16 14 11 13 11 12 17 16 16 14 14 13 14 15 15 15 15 15 16 17 18 21 22 22 22 22 22
24 24 22 19 18 19 20 19 15 17 16 15 16 19 17 17 18 18 17 16 15 19 17 17 18 17 17 17 16 17 18 20 20 21 22 23 24 23
22 20 19 16 17 18 22 18 17 18 18 19 18 14 15 20 21 20 18 18 19 20 20 20 20 20 20 20 20 22 24 24 23 22 22 23 24 23
19 16 14 14 17 19 19 17 18 20 20 19 17 17 23 22 21 20 21 22 22 22 21 22 23 23 23 23 23 26 26 24 24 24 22 23 24 23
12 12 13 13 13 14 17 17 20 19 20 19 19 22 23 25 25 25 24 24 24 25 25 25 25 25 26 26 26 28 29 26 24 24 24 23 25 24
11 12 13 13 14 14 16 17 19 21 22 23 26 29 29 27 27 27 27 27 27 28 29 28 27 28 28 28 30 31 30 28 24 24 24 24 24 27
15 15 17 19 20 19 21 22 25 28 30 30 29 29 29 30 30 30 29 29 29 30 31 31 29 28 31 34 34 34 32 31 27 25 26 26 25 26
18 19 21 24 25 26 26 27 29 30 30 29 29 30 31 32 32 32 31 32 32 32 32 32 32 38 40 39 35 32 33 33 30 28 28 27 27 27
21 21 22 23 24 27 29 31 32 33 35 35 35 36 35 35 34 35 38 38 38 36 35 36 39 44 43 41 37 34 32 35 33 31 29 29 28 29
24 25 25 25 25 26 29 30 31 30 30 32 33 34 35 35 37 40 44 46 47 46 43 43 43 44 42 38 37 34 33 34 36 36 31 30 30 29

GFSNE_700_spd_108.txt.gz
Wind_Speed
21 24 25 25 28 31 35 34 35 38 41 45 41 38 34 35 35 33 31 31 29 29 29 28 23 20 20 20 19 18 16 16 17 21 23 22 20 21
26 26 28 28 30 33 33 35 37 40 41 36 36 36 34 31 32 31 31 30 29 28 27 25 21 20 18 18 15 15 14 15 16 19 24 21 25 24
25 29 30 31 34 37 36 39 37 36 37 37 35 33 33 31 30 29 29 29 28 24 24 22 18 18 16 14 12 12 12 12 14 17 21 21 22 25
29 29 31 34 38 33 36 33 34 36 36 34 33 33 32 30 28 28 27 27 26 24 23 20 17 17 16 14 12 12 12 15 17 18 17 17 22 20
31 30 31 31 27 29 33 34 33 33 33 32 31 30 30 30 28 28 27 26 25 24 22 20 17 18 17 15 14 14 16 18 16 18 20 17 21 21
26 24 25 27 28 30 31 31 30 30 31 30 30 29 28 28 28 27 26 25 23 22 21 19 16 18 17 17 16 19 23 24 26 24 24 26 25 24
26 26 27 27 28 28 28 29 29 28 28 28 28 28 28 28 27 26 25 23 21 20 19 17 17 16 17 18 18 18 20 21 25 30 29 28 30 31
25 25 26 27 28 28 29 29 30 30 30 29 28 27 27 26 25 24 23 21 20 18 17 16 16 16 16 16 17 18 20 21 22 24 27 29 27 26
24 25 28 29 30 31 30 30 29 28 28 28 27 25 25 24 22 21 20 19 17 16 15 15 14 15 15 16 17 18 18 19 21 22 23 23 23 22
26 27 29 30 31 30 29 29 28 28 27 26 24 23 21 21 20 19 18 17 14 14 14 13 14 13 16 16 15 16 16 17 17 18 19 19 19 19
27 29 29 29 28 27 28 28 27 26 24 23 22 20 19 19 18 17 17 15 14 13 12 13 14 13 13 13 13 14 13 14 16 16 16 17 18 18
28 29 28 27 26 26 26 25 24 23 20 19 19 18 17 17 16 15 15 15 15 14 14 13 11 9 10 11 12 13 14 16 16 17 17 17 18 18
28 27 26 27 25 24 24 23 22 20 18 17 16 15 15 15 15 15 15 15 14 13 13 12 11 10 11 13 14 14 15 16 17 18 18 18 19 20
26 26 25 26 26 25 23 21 20 19 17 15 13 13 15 14 14 14 14 14 13 15 13 12 12 14 17 18 15 14 13 14 15 17 18 19 21 22
25 24 25 23 24 24 23 21 19 18 16 14 14 14 14 15 15 15 13 12 12 14 12 15 16 18 17 15 14 20 16 15 15 16 17 17 20 22
25 23 23 22 23 21 19 18 17 17 16 17 16 15 15 16 15 15 15 15 15 15 17 18 17 16 18 18 18 16 17 18 19 19 19 19 21 23
24 23 22 22 20 17 16 15 16 18 18 18 16 17 18 20 19 18 18 18 17 20 21 21 21 21 21 21 22 23 23 22 23 22 22 21 21 23
21 21 21 20 18 17 16 16 17 18 17 16 16 17 16 16 17 19 21 19 20 22 21 21 22 22 23 24 24 25 24 24 25 25 25 24 24 26
18 19 19 19 19 18 17 16 15 14 14 16 17 16 17 20 22 23 24 22 21 22 23 23 25 26 27 27 27 27 27 27 27 27 28 27 29 30
17 19 20 20 20 20 20 19 18 18 16 17 19 19 22 21 20 21 22 24 26 26 27 28 27 29 31 31 31 28 28 29 29 31 32 35 35 31
20 20 22 22 22 21 22 22 22 22 23 23 24 25 26 27 28 30 31 32 33 33 32 30 29 34 35 33 31 27 30 31 31 36 40 39 36 32
27 26 22 20 22 23 23 24 24 24 25 26 28 29 31 32 32 33 33 34 36 37 35 34 36 37 40 39 33 32 38 40 41 39 40 39 37 35
24 24 25 28 25 25 26 26 26 25 26 26 27 29 30 31 31 31 32 33 36 39 39 40 43 45 46 45 44 40 37 36 38 42 39 40 36 34

GFSNE_700_spd_111.txt.gz
Wind_Speed
25 23 22 21 24 27 29 31 33 36 37 40 41 32 32 32 32 32 32 32 32 31 33 32 32 28 25 23 21 19 17 17 17 18 21 24 26 23
22 21 22 25 26 30 33 33 36 37 39 37 34 33 34 33 32 32 31 32 32 31 31 30 29 25 23 21 19 15 14 15 13 17 18 22 22 24
23 20 24 27 30 31 33 35 38 36 34 34 34 34 35 33 32 31 30 30 30 29 29 28 23 23 20 18 16 12 11 10 12 14 18 20 20 38
26 28 28 29 30 30 32 32 29 30 32 34 34 34 34 33 31 30 30 29 28 28 28 25 20 21 18 14 13 11 11 11 12 14 20 23 25 26
25 27 28 28 27 26 25 27 29 31 34 34 34 32 32 32 31 29 28 28 28 27 27 24 18 20 17 14 13 12 8 12 17 15 14 16 19 21
26 26 26 25 25 27 27 28 28 29 32 32 33 30 30 30 30 29 28 26 26 25 24 21 18 18 15 14 15 17 18 19 21 15 18 23 23 18
25 26 26 26 26 27 27 28 28 29 32 33 33 33 32 30 28 28 27 25 23 23 21 19 17 15 14 15 15 16 23 28 29 26 28 21 21 25
26 26 26 27 28 27 27 29 31 32 33 33 32 31 31 30 29 26 25 22 22 20 18 16 15 14 14 14 15 16 21 27 27 29 33 29 28 27
26 25 26 26 27 28 29 31 32 32 32 31 31 30 28 27 27 24 23 21 19 18 16 13 12 12 12 13 14 16 17 21 23 24 26 29 31 29
25 26 25 26 28 29 30 31 30 30 30 29 29 28 26 25 24 22 21 19 17 16 13 12 12 11 12 12 12 13 13 17 19 23 24 24 25 26
25 26 28 28 29 30 30 30 29 28 27 26 25 25 24 22 21 20 18 17 15 14 12 11 11 11 10 10 10 13 16 17 17 18 18 19 20 20
27 27 28 27 28 27 28 28 28 27 26 24 22 21 20 19 19 18 17 15 14 14 13 13 12 11 11 11 12 11 12 13 13 13 15 17 17 18
26 26 27 27 26 25 26 26 26 26 25 23 20 18 17 16 16 16 15 13 13 13 14 13 12 11 12 11 13 13 12 11 13 16 18 18 18 19
26 26 27 27 24 24 24 25 25 26 23 21 18 16 15 15 14 14 14 13 13 13 13 13 12 11 13 14 15 16 19 17 15 17 18 17 18 18
27 28 27 26 25 23 24 25 24 24 21 19 17 16 15 14 14 14 14 13 13 13 14 15 16 14 15 16 17 14 15 18 16 14 14 14 15 16
28 28 28 26 25 24 23 23 21 20 19 18 17 17 17 15 16 15 14 14 14 13 12 12 12 15 16 17 17 15 12 12 16 16 14 16 17 17
29 29 28 26 25 23 21 19 18 17 17 17 18 18 17 17 17 17 16 17 17 16 16 17 18 20 21 18 19 19 19 20 19 20 20 21 21 20
29 27 24 22 21 21 19 18 18 18 17 18 18 16 17 16 18 20 20 21 21 20 17 18 20 20 21 22 21 21 21 22 22 23 23 24 24 24
24 21 19 19 19 19 18 18 18 17 16 14 15 15 14 17 18 18 17 16 18 21 22 22 21 22 23 23 23 23 23 25 25 26 26 27 28 28
19 20 19 20 20 20 20 19 19 19 18 18 17 17 17 18 19 19 21 22 25 24 23 23 23 25 28 27 26 24 26 27 28 29 29 29 30 31
22 23 23 23 22 22 22 21 21 21 21 21 21 22 22 22 22 23 25 26 27 28 27 28 29 32 31 29 28 26 28 31 31 33 33 33 33 33
24 25 26 27 28 25 23 22 24 24 24 24 24 25 26 27 27 28 29 31 32 32 32 33 34 35 35 34 32 31 32 34 37 37 36 35 39 43
26 26 27 27 25 25 26 27 25 25 25 25 25 25 26 26 27 28 29 30 31 32 34 35 37 39 38 37 38 39 40 41 40 43 42 42 39 38

GFSNE_700_spd_114.txt.gz
Wind_Speed
21 21 23 22 24 26 26 28 30 34 34 37 41 37 29 26 28 29 31 32 31 31 30 31 31 32 30 26 24 22 19 16 17 17 19 23 28 29
22 23 24 24 24 25 29 31 32 35 37 37 38 32 28 27 29 30 31 31 31 30 29 29 29 29 26 23 21 19 18 17 15 14 16 21 25 29
23 23 22 23 23 27 29 31 34 34 33 29 27 28 29 28 29 30 30 30 30 29 27 27 27 26 23 20 18 18 16 14 14 14 15 19 23 25
25 25 20 22 28 29 31 31 30 27 25 26 27 26 28 29 29 29 30 29 30 29 27 25 24 22 21 17 16 16 12 11 11 14 14 18 23 22
24 21 25 25 29 30 29 27 25 26 27 26 26 26 28 30 30 29 29 29 28 29 28 24 22 20 18 15 15 14 12 9 11 11 14 15 22 27
22 22 24 26 27 26 26 26 27 27 27 26 27 28 29 31 32 32 32 30 29 28 27 24 19 18 16 13 14 14 11 8 12 14 13 17 21 17
22 23 25 25 26 26 26 27 27 27 28 29 31 32 32 31 31 31 30 30 29 28 25 22 18 16 14 13 14 15 15 20 15 17 16 17 16 18
23 25 26 26 26 26 26 26 27 28 29 31 33 32 31 32 31 30 29 28 28 26 22 19 16 14 13 13 15 16 18 25 26 28 26 26 29 15
27 27 27 26 25 26 27 28 29 30 31 31 31 32 31 31 30 28 27 26 25 22 18 15 14 13 12 12 13 15 17 20 30 31 29 25 24 25
28 28 27 26 26 26 27 29 30 31 31 30 28 29 28 30 29 26 24 23 21 19 16 13 12 12 11 12 13 14 16 18 23 27 26 23 23 24
28 27 27 26 25 27 27 28 29 30 30 29 28 28 28 27 26 25 22 18 17 16 14 12 12 13 12 12 12 13 13 15 17 17 17 20 21 23
28 28 27 26 26 27 28 28 29 28 29 28 27 26 25 24 22 21 18 15 14 14 13 12 13 13 12 12 13 14 14 15 15 17 18 18 18 18
28 28 27 26 26 27 28 28 28 28 28 27 26 25 22 22 20 17 15 14 13 13 13 13 13 13 13 13 11 11 11 12 13 15 15 15 14 14
29 27 26 27 27 28 27 27 27 27 26 26 24 22 20 19 17 16 14 13 13 13 13 13 13 13 12 11 12 13 13 14 16 16 14 13 15 17
29 27 27 29 29 28 28 27 26 25 24 23 20 18 18 17 16 15 14 13 13 13 13 13 13 14 12 13 14 14 14 12 12 15 17 18 15 15
28 28 29 31 30 29 28 26 24 23 21 19 16 17 17 17 16 15 15 14 14 14 13 12 12 12 11 13 16 17 13 9 13 18 20 20 18 15
30 30 31 31 31 29 26 24 22 20 18 16 15 16 17 18 18 16 14 14 13 14 14 13 15 15 16 14 17 19 17 16 12 15 14 14 15 15
30 29 29 29 28 23 19 18 18 17 16 15 15 17 18 18 16 17 18 18 17 17 17 15 15 18 15 19 21 23 19 20 21 20 19 18 19 20
26 29 29 26 20 17 16 16 16 16 15 16 16 15 14 15 15 17 16 16 18 19 20 22 20 19 18 20 19 20 20 20 21 21 22 22 22 24
27 24 21 20 18 17 17 17 18 17 17 18 18 17 16 16 16 17 17 18 19 20 20 21 26 23 20 23 23 22 23 24 25 25 26 26 26 26
21 23 22 21 21 22 21 19 20 21 20 20 21 21 21 21 20 20 21 21 22 22 22 23 26 27 27 27 27 25 26 27 27 28 27 27 28 29
24 24 23 23 24 24 24 25 25 22 20 21 22 22 22 22 23 25 26 27 27 28 28 30 31 32 33 33 30 29 29 31 32 33 34 35 35 36
22 23 24 24 23 24 25 24 22 23 24 23 21 22 22 22 21 22 22 23 25 26 28 30 33 34 34 34 34 33 34 36 38 38 39 39 40 42

GFSNE_700_spd_117.txt.gz
Wind_Speed
19 19 19 23 25 27 25 25 29 29 30 33 35 36 35 33 28 28 28 28 28 28 28 29 30 29 27 25 24 22 20 20 19 18 17 22 25 27
16 19 23 25 25 24 24 24 25 29 32 35 36 35 31 25 26 27 28 27 28 29 28 28 30 29 27 25 24 21 20 18 18 17 18 19 21 26
21 23 24 22 22 24 25 24 27 31 32 34 33 29 28 27 26 26 27 27 26 27 27 27 28 28 25 24 22 21 19 17 17 16 17 19 22 24
22 22 22 21 23 23 23 27 30 32 32 30 27 29 28 26 26 27 27 27 26 27 27 26 27 27 25 23 21 20 18 14 14 14 16 18 19 17
22 22 22 22 23 22 25 28 31 29 28 27 28 26 26 27 28 29 28 28 28 29 28 26 25 25 23 22 19 18 17 11 11 11 12 13 16 18
25 24 23 19 23 24 26 27 27 27 27 26 27 26 27 29 30 30 29 29 28 28 26 26 25 23 21 20 18 17 15 6 8 8 8 12 16 22
26 23 21 21 22 24 25 25 25 26 26 27 27 28 29 30 30 29 29 29 28 26 25 25 23 22 19 18 17 16 15 10 14 13 11 9 14 18
22 25 20 22 24 25 25 25 25 25 26 27 29 31 31 31 29 29 29 28 27 26 24 23 20 19 17 17 16 16 15 19 21 16 15 16 12 17
21 20 22 24 25 25 25 25 25 25 27 29 30 31 29 30 28 28 28 27 25 23 21 20 18 17 15 15 15 16 16 17 24 19 18 20 22 14
21 22 25 26 26 26 25 24 24 26 27 29 29 29 27 26 26 27 26 25 23 22 18 17 17 15 14 13 14 15 16 17 20 26 25 22 24 22
26 30 27 27 26 25 24 24 25 26 28 29 28 27 26 26 26 25 24 22 20 19 17 15 15 14 13 13 14 14 15 17 18 20 25 29 31 29
28 32 28 27 27 26 25 24 24 26 28 28 27 26 26 26 25 23 21 19 18 17 16 13 14 13 13 14 14 14 15 16 17 18 19 22 24 21
30 30 28 27 27 27 26 26 26 25 26 26 25 25 25 25 23 20 19 17 16 15 13 13 13 13 13 14 13 14 15 14 13 14 15 17 20 17
31 31 30 29 28 28 27 27 26 26 26 25 24 24 25 23 21 19 16 15 15 14 14 13 13 14 14 14 12 11 11 11 11 11 14 16 17 17
32 30 31 29 28 28 27 28 26 26 25 25 23 22 22 20 18 17 16 15 14 14 14 14 14 14 14 15 14 13 13 12 11 13 18 18 16 15
29 31 31 29 28 28 28 28 27 28 25 24 22 20 19 18 18 17 16 16 15 14 14 14 14 14 15 14 13 14 16 14 13 13 15 16 19 20
34 32 29 29 28 29 28 28 28 28 25 22 20 18 18 18 17 17 18 17 15 15 15 15 14 13 14 13 15 17 18 19 18 13 12 13 12 16
32 31 31 29 30 29 27 27 26 23 22 20 19 19 18 17 18 17 17 17 16 16 16 16 16 18 19 19 19 18 17 22 22 16 20 18 18 20
35 35 32 30 28 28 29 26 23 22 20 20 20 19 18 16 14 15 16 16 15 17 19 20 21 22 22 24 21 17 20 23 22 21 22 22 23 22
33 31 29 28 27 27 25 23 22 21 20 19 20 20 19 17 15 17 17 16 17 17 16 16 18 23 25 24 22 19 20 22 23 24 25 25 24 24
27 26 25 24 24 24 24 23 22 22 20 19 19 19 20 20 20 20 20 20 19 20 20 21 26 26 24 22 19 22 26 26 26 27 27 27 28 27
25 23 23 23 22 21 22 24 24 24 23 22 21 20 20 19 20 23 23 24 24 24 25 27 28 29 29 29 28 29 29 31 31 32 33 34 35 34
26 23 21 21 21 21 22 22 21 22 22 21 21 22 21 20 19 19 19 20 21 22 24 27 30 31 31 32 32 33 34 35 37 38 36 38 38 38

GFSNE_700_spd_120.txt.gz
Wind_Speed
38 42 41 28 29 28 27 27 31 30 25 29 31 30 32 35 35 32 27 27 28 27 27 27 28 28 27 26 25 25 24 23 22 22 21 20 22 23
41 40 28 33 21 22 27 28 31 27 28 27 27 32 33 33 30 27 29 27 27 26 26 25 25 26 26 25 25 25 24 23 22 21 20 20 20 20
48 41 36 25 21 26 26 27 27 26 25 27 30 32 31 28 28 27 27 27 27 29 28 26 26 26 25 25 25 25 24 23 21 20 18 19 19 19
36 37 27 19 24 26 25 26 27 26 28 30 32 31 29 28 27 26 27 27 28 29 28 27 26 25 24 25 24 23 22 21 18 18 17 16 16 17
18 17 15 22 24 24 25 23 26 27 28 29 29 29 29 28 27 26 27 29 29 29 28 26 25 23 23 24 23 21 20 19 16 13 13 12 13 13
22 23 23 25 24 25 25 23 25 28 27 28 28 28 27 27 27 28 28 29 29 28 26 25 23 22 22 22 21 19 17 14 14 7 7 8 8 11
25 27 27 26 26 25 24 25 25 26 26 26 26 25 26 26 28 29 30 29 29 27 25 25 22 22 22 20 19 18 15 11 6 7 3 1 4 11
27 29 25 27 25 24 23 24 26 26 26 25 24 25 26 27 29 29 29 27 26 25 23 23 21 21 19 18 17 16 14 10 13 15 14 8 11 11
27 28 30 27 27 21 23 26 25 25 25 24 24 25 27 28 29 28 27 26 25 23 21 20 20 19 17 17 16 15 14 13 17 17 14 13 12 6
26 22 30 24 18 23 27 26 25 25 24 24 24 26 27 28 28 27 26 25 23 21 19 18 19 17 17 16 15 14 14 14 17 21 19 20 22 17
23 26 18 19 27 29 27 26 25 24 24 24 25 26 28 27 26 26 26 23 21 19 17 15 16 16 14 13 13 13 13 14 15 18 25 24 28 21
24 24 25 30 32 27 27 26 25 24 25 25 26 26 27 27 25 24 23 20 18 16 14 14 15 13 13 12 12 13 13 14 16 16 18 20 21 21
27 28 31 33 29 25 25 26 25 25 26 26 26 27 27 26 25 23 21 18 15 14 13 13 14 13 12 12 12 12 12 14 15 15 16 17 17 17
31 32 33 33 31 30 28 27 26 26 26 26 26 26 26 25 23 21 18 16 15 13 13 13 13 13 13 12 12 13 13 13 13 12 11 13 15 17
33 34 34 33 31 30 30 27 26 26 26 26 26 26 25 24 21 17 16 16 14 14 13 13 14 14 15 14 14 14 12 11 11 10 11 13 14 15
34 33 30 32 34 30 31 28 27 27 27 27 27 25 23 22 20 17 15 15 15 16 16 14 14 14 15 14 15 16 14 14 15 15 14 15 15 16
33 35 36 31 30 31 31 30 28 28 27 26 26 24 21 20 19 17 16 16 17 17 17 16 15 15 15 15 15 16 18 18 18 17 16 15 14 11
34 33 31 30 32 33 33 32 29 27 27 24 22 21 20 19 18 17 18 19 19 19 18 15 14 16 17 18 18 20 20 21 23 25 22 23 19 17
30 28 29 31 33 35 35 34 30 27 25 22 21 20 19 18 18 18 17 18 18 18 19 19 16 17 19 21 19 20 21 23 20 20 21 20 20 20
34 32 33 35 38 36 34 31 28 26 24 22 20 19 19 18 19 19 18 18 18 17 16 17 19 22 23 24 23 21 26 25 25 21 21 21 23 24
34 34 33 33 32 32 29 27 24 24 22 21 21 21 21 20 21 22 22 21 20 19 19 21 22 20 20 20 21 24 24 21 20 21 24 25 25 26
30 28 28 28 29 27 22 22 23 24 23 24 25 24 23 23 24 24 23 23 25 24 24 24 23 23 24 24 25 26 27 28 28 28 29 30 31 32
28 27 25 27 27 26 25 23 23 22 23 24 25 26 27 25 24 23 24 24 25 24 25 28 28 26 27 27 28 29 31 33 34 34 34 36 37 37

GFSNE_700_spd_126.txt.gz
Wind_Speed
36 37 38 35 41 32 34 37 42 43 41 39 47 36 32 26 26 25 25 27 28 25 25 25 23 24 25 26 25 25 25 25 24 23 24 23 22 20
41 41 42 40 36 41 34 36 39 42 41 42 31 24 22 21 25 23 26 29 26 25 24 24 24 24 26 27 27 25 26 25 24 24 25 23 22 19
41 44 37 32 31 39 40 38 39 51 44 40 26 25 19 21 24 26 27 26 26 25 25 24 24 26 27 27 27 26 26 25 24 24 24 21 20 17
44 49 48 44 46 41 41 38 41 38 39 32 19 22 23 21 24 26 26 25 25 25 24 24 26 26 27 27 26 25 26 25 24 23 22 21 18 15
50 36 44 46 43 40 40 35 39 35 28 22 22 23 22 23 26 26 26 26 25 25 25 26 28 27 27 27 25 24 24 24 24 22 19 18 13 12
48 34 39 42 43 42 34 24 29 33 21 24 20 26 25 22 27 26 26 25 24 24 26 28 29 26 26 26 24 24 22 23 23 21 16 12 10 9
39 42 41 42 36 31 29 23 25 23 28 24 23 22 19 22 26 25 25 24 24 26 28 28 28 27 26 26 23 22 20 19 19 21 11 5 8 5
52 50 43 41 37 26 29 34 30 28 20 25 24 23 23 25 25 24 23 23 25 26 27 27 26 26 25 24 22 20 18 17 16 16 11 11 9 5
41 26 25 24 25 27 30 36 23 30 25 26 28 23 24 25 25 23 24 24 25 27 26 26 26 25 24 22 20 19 16 15 15 15 14 7 8 7
20 24 24 24 23 26 27 34 33 28 31 32 26 22 25 25 25 24 23 25 26 26 25 24 25 23 22 21 19 17 15 13 15 16 11 11 10 5
25 26 25 26 31 28 27 31 31 29 26 24 20 22 25 25 25 24 24 25 25 25 25 23 22 21 20 18 17 15 14 12 14 16 15 16 10 11
22 23 24 25 31 33 32 30 35 31 15 20 25 27 27 25 24 23 25 26 25 24 24 22 21 18 18 16 15 13 11 12 12 14 18 22 22 21
28 27 28 30 30 31 34 30 27 19 16 20 24 26 26 26 25 25 26 25 25 24 22 21 18 16 16 15 13 11 11 12 12 13 14 14 16 20
34 33 34 35 36 29 33 33 24 24 26 27 28 26 26 26 25 25 25 25 24 23 21 19 17 15 15 14 13 11 11 12 12 12 12 13 14 15
39 39 40 39 37 36 35 36 36 34 27 31 31 30 28 27 26 26 25 25 24 21 20 17 16 15 15 14 13 12 12 12 13 13 12 11 11 11
39 39 42 42 38 38 38 41 36 29 32 34 31 29 29 29 27 26 25 25 23 20 18 17 15 15 15 14 13 13 14 13 14 14 13 12 11 10
39 40 41 42 42 42 43 43 43 40 33 34 32 29 33 27 26 25 24 23 21 19 18 16 16 16 15 15 14 13 13 14 15 15 13 12 11 12
39 41 42 43 43 42 42 42 42 39 36 32 25 32 30 28 27 24 23 21 19 18 18 17 17 16 16 15 15 14 14 15 17 14 12 13 14 15
41 42 43 44 44 42 41 40 37 36 33 30 35 33 31 29 24 22 22 22 20 18 18 18 17 17 17 15 14 14 15 17 16 13 12 13 15 19
39 41 43 45 44 41 42 42 39 39 37 38 36 32 32 28 25 24 24 23 20 19 18 18 17 17 16 15 15 16 18 19 17 16 16 16 18 16
36 41 44 48 50 49 42 44 42 40 39 36 33 33 32 29 27 25 24 23 21 19 19 19 17 16 16 17 19 19 20 22 22 20 19 17 14 16
35 33 33 32 36 41 43 41 45 39 41 39 35 33 31 29 27 25 24 23 21 22 22 18 18 18 18 19 20 19 18 18 19 20 20 20 19 19
34 32 30 28 31 30 28 32 32 33 32 32 32 30 29 27 27 25 24 23 23 22 22 21 21 21 21 22 23 23 23 22 21 21 22 22 24 25

GFSNE_700_spd_129.txt.gz
Wind_Speed
45 40 40 39 38 39 39 42 41 44 40 36 36 34 40 39 37 26 23 20 21 23 25 22 22 21 21 21 23 23 22 23 22 22 23 22 23 22
43 40 39 41 48 43 44 46 46 46 43 40 38 40 35 36 28 25 21 23 23 25 25 23 21 20 21 23 24 24 23 24 23 23 23 23 23 21
40 44 49 51 45 48 46 45 39 36 41 43 44 45 37 34 29 22 23 23 23 24 25 23 21 21 21 22 24 25 25 26 22 23 23 23 22 21
54 52 56 45 52 51 44 47 43 47 50 47 47 41 42 36 28 19 21 22 24 25 23 20 21 21 22 24 23 25 25 25 22 22 23 24 21 18
54 49 46 52 47 44 44 53 58 56 51 48 33 36 33 27 18 21 27 20 26 23 22 21 21 22 24 25 24 24 24 24 22 21 23 22 20 17
43 48 53 47 47 53 52 50 41 43 46 44 39 33 28 27 23 27 20 23 24 23 22 22 23 24 26 24 23 23 23 22 21 22 21 19 17 15
51 45 45 48 49 44 45 45 37 38 38 33 35 34 29 24 21 18 22 25 24 22 22 22 24 25 25 23 23 21 22 21 20 21 20 18 14 10
51 54 58 60 47 47 45 47 49 44 38 38 33 32 27 23 21 22 23 24 23 23 23 24 25 25 24 23 22 21 20 19 19 19 19 15 11 9
50 48 47 51 46 49 55 47 39 39 35 36 37 23 30 21 26 21 21 23 23 23 24 24 24 24 23 23 21 19 18 18 18 17 16 14 10 4
25 31 34 33 24 21 33 28 33 31 33 32 34 33 32 29 25 18 21 24 23 22 23 23 23 24 23 22 20 18 16 16 16 15 15 13 11 8
26 26 29 27 21 28 28 32 22 31 32 40 38 28 25 21 17 18 23 24 22 23 23 22 23 23 23 20 18 16 15 15 14 15 14 11 8 10
26 27 24 28 31 36 36 24 28 31 29 25 27 25 20 17 17 19 22 22 23 24 23 23 23 22 21 18 16 15 14 13 15 15 15 14 21 11
30 29 28 28 27 29 29 31 33 34 34 37 38 16 16 18 22 22 23 26 28 26 23 23 22 21 19 17 15 14 13 13 15 16 17 21 24 22
36 35 35 34 33 34 34 35 37 37 32 30 24 18 18 22 25 27 28 29 29 26 24 22 21 20 18 16 14 13 14 14 14 16 17 18 20 22
43 44 41 41 42 40 40 39 40 38 38 34 29 32 26 24 25 26 27 28 27 24 23 22 21 18 17 15 14 14 14 14 15 16 17 17 17 17
42 43 42 42 44 45 45 46 46 47 45 40 40 37 29 26 26 28 28 28 26 25 24 21 20 18 16 16 15 14 15 15 15 17 18 18 16 14
42 43 44 42 42 43 46 47 43 44 42 42 31 28 27 26 28 30 28 31 25 24 23 21 21 19 17 17 16 15 14 16 17 18 18 17 15 13
44 43 42 43 43 41 42 43 42 41 44 47 41 30 31 29 31 27 29 28 26 24 23 22 20 18 18 17 16 15 15 17 18 19 18 16 15 14
39 40 39 40 40 40 41 44 43 44 38 38 31 28 34 28 29 28 29 26 27 22 23 21 20 19 18 16 16 16 17 18 19 20 19 16 15 15
39 38 40 39 36 41 44 45 44 44 45 45 44 40 32 31 32 31 27 27 25 23 22 21 20 19 18 17 17 17 18 19 20 22 21 19 16 15
38 39 37 39 40 39 42 46 45 45 43 42 38 36 35 38 35 31 28 29 27 23 22 21 22 19 18 20 19 18 19 19 21 23 21 20 17 16
36 35 36 37 37 36 35 40 48 48 42 43 40 40 37 33 32 34 30 29 27 25 25 23 20 21 21 20 19 19 19 20 21 23 23 23 21 19
32 32 32 33 33 32 30 32 33 36 39 43 44 40 37 38 36 33 29 28 30 27 24 21 22 22 22 21 20 19 19 19 19 20 21 21 23 23